Wetterdaten: Samstag, 05.01.2019
Datum Zeit Temp. Aussen Temp. o. S. +5cm Feuchte Auss Luftdruck Regen Sonnenschein Regendauer Solar Windben Empfang
05.01.2019 00:00 3,4 C 2,8 C 2,2 C 98 % 1031,5 hPa 0,0 l/m 0 min 0 min 0 W/m 9,7 km/h (2 Bft) 95,65 %
05.01.2019 00:02 3,4 C 2,8 C 2,2 C 98 % 1031,5 hPa 0,0 l/m 0 min 0 min 0 W/m 6,4 km/h (2 Bft) 91,67 %
05.01.2019 00:04 3,4 C 2,8 C 2,2 C 98 % 1031,5 hPa 0,0 l/m 0 min 0 min 0 W/m 12,9 km/h (3 Bft) 92,00 %
05.01.2019 00:07 3,4 C 2,8 C 2,2 C 98 % 1031,4 hPa 0,0 l/m 0 min 0 min 0 W/m 9,7 km/h (2 Bft) 97,22 %
05.01.2019 00:08 3,4 C 2,8 C 2,2 C 98 % 1031,4 hPa 0,0 l/m 0 min 0 min 0 W/m 9,7 km/h (2 Bft) 100,00 %
05.01.2019 00:10 3,4 C 2,8 C 2,2 C 98 % 1031,4 hPa 0,0 l/m 0 min 0 min 0 W/m 9,7 km/h (2 Bft) 95,74 %
05.01.2019 00:12 3,4 C 2,8 C 2,2 C 98 % 1031,4 hPa 0,0 l/m 0 min 0 min 0 W/m 9,7 km/h (2 Bft) 93,48 %
05.01.2019 00:14 3,4 C 2,8 C 2,2 C 98 % 1031,4 hPa 0,0 l/m 0 min 0 min 0 W/m 6,4 km/h (2 Bft) 93,62 %
05.01.2019 00:16 3,4 C 2,8 C 2,2 C 98 % 1031,4 hPa 0,0 l/m 0 min 0 min 0 W/m 9,7 km/h (2 Bft) 95,74 %
05.01.2019 00:18 3,4 C 2,8 C 2,2 C 98 % 1031,4 hPa 0,0 l/m 0 min 0 min 0 W/m 6,4 km/h (2 Bft) 95,74 %
05.01.2019 00:20 3,5 C 2,8 C 2,2 C 98 % 1031,4 hPa 0,0 l/m 0 min 0 min 0 W/m 9,7 km/h (2 Bft) 95,74 %
05.01.2019 00:22 3,5 C 2,8 C 2,2 C 98 % 1031,4 hPa 0,0 l/m 0 min 0 min 0 W/m 6,4 km/h (2 Bft) 95,74 %
05.01.2019 00:24 3,5 C 2,8 C 2,2 C 98 % 1031,4 hPa 0,0 l/m 0 min 0 min 0 W/m 9,7 km/h (2 Bft) 93,48 %
05.01.2019 00:26 3,5 C 2,8 C 2,8 C 98 % 1031,4 hPa 0,0 l/m 0 min 0 min 0 W/m 6,4 km/h (2 Bft) 95,74 %
05.01.2019 00:28 3,5 C 2,8 C 2,8 C 98 % 1031,3 hPa 0,0 l/m 0 min 0 min 0 W/m 6,4 km/h (2 Bft) 97,87 %
05.01.2019 00:30 3,6 C 3,3 C 2,8 C 98 % 1031,4 hPa 0,0 l/m 0 min 0 min 0 W/m 6,4 km/h (2 Bft) 97,87 %
05.01.2019 00:32 3,6 C 3,3 C 2,8 C 98 % 1031,3 hPa 0,0 l/m 0 min 0 min 0 W/m 9,7 km/h (2 Bft) 97,87 %
05.01.2019 00:34 3,6 C 3,3 C 2,8 C 98 % 1031,3 hPa 0,0 l/m 0 min 0 min 0 W/m 9,7 km/h (2 Bft) 95,74 %
05.01.2019 00:36 3,6 C 3,3 C 2,8 C 98 % 1031,3 hPa 0,0 l/m 0 min 0 min 0 W/m 9,7 km/h (2 Bft) 97,83 %
05.01.2019 00:38 3,6 C 3,3 C 2,8 C 98 % 1031,3 hPa 0,0 l/m 0 min 0 min 0 W/m 9,7 km/h (2 Bft) 97,87 %
05.01.2019 00:40 3,6 C 3,3 C 2,8 C 98 % 1031,3 hPa 0,0 l/m 0 min 0 min 0 W/m 6,4 km/h (2 Bft) 97,87 %
05.01.2019 00:42 3,6 C 3,3 C 2,8 C 98 % 1031,3 hPa 0,0 l/m 0 min 0 min 0 W/m 9,7 km/h (2 Bft) 97,87 %
05.01.2019 00:44 3,6 C 3,3 C 2,8 C 98 % 1031,2 hPa 0,0 l/m 0 min 0 min 0 W/m 6,4 km/h (2 Bft) 97,87 %
05.01.2019 00:46 3,6 C 3,3 C 2,8 C 98 % 1031,2 hPa 0,0 l/m 0 min 0 min 0 W/m 9,7 km/h (2 Bft) 95,74 %
05.01.2019 00:48 3,6 C 3,3 C 2,8 C 98 % 1031,2 hPa 0,0 l/m 0 min 0 min 0 W/m 9,7 km/h (2 Bft) 97,83 %
05.01.2019 00:50 3,6 C 3,3 C 2,8 C 98 % 1031,1 hPa 0,0 l/m 0 min 0 min 0 W/m 6,4 km/h (2 Bft) 97,87 %
05.01.2019 00:52 3,6 C 3,3 C 2,8 C 98 % 1031,1 hPa 0,0 l/m 0 min 0 min 0 W/m 0,0 km/h (0 Bft) 95,74 %
05.01.2019 00:54 3,6 C 3,3 C 2,8 C 98 % 1031,2 hPa 0,0 l/m 0 min 0 min 0 W/m 16,1 km/h (3 Bft) 95,74 %
05.01.2019 00:56 3,7 C 3,3 C 2,8 C 98 % 1031,2 hPa 0,0 l/m 0 min 0 min 0 W/m 9,7 km/h (2 Bft) 95,74 %
05.01.2019 00:58 3,6 C 3,3 C 2,8 C 98 % 1031,1 hPa 0,0 l/m 0 min 0 min 0 W/m 0,0 km/h (0 Bft) 95,65 %
05.01.2019 01:00 3,7 C 3,3 C 2,8 C 98 % 1031,1 hPa 0,0 l/m 0 min 0 min 0 W/m 12,9 km/h (3 Bft) 95,74 %
05.01.2019 01:02 3,7 C 3,3 C 2,8 C 98 % 1031,1 hPa 0,0 l/m 0 min 0 min 0 W/m 6,4 km/h (2 Bft) 97,87 %
05.01.2019 01:04 3,7 C 3,3 C 2,8 C 98 % 1031,1 hPa 0,0 l/m 0 min 0 min 0 W/m 6,4 km/h (2 Bft) 93,62 %
05.01.2019 01:06 3,7 C 3,3 C 2,8 C 98 % 1031,0 hPa 0,0 l/m 0 min 0 min 0 W/m 6,4 km/h (2 Bft) 97,87 %
05.01.2019 01:08 3,7 C 3,3 C 2,8 C 98 % 1031,0 hPa 0,0 l/m 0 min 0 min 0 W/m 9,7 km/h (2 Bft) 97,87 %
05.01.2019 01:10 3,7 C 3,3 C 2,8 C 98 % 1031,1 hPa 0,0 l/m 0 min 0 min 0 W/m 9,7 km/h (2 Bft) 95,65 %
05.01.2019 01:12 3,7 C 3,3 C 2,8 C 98 % 1031,1 hPa 0,0 l/m 0 min 0 min 0 W/m 6,4 km/h (2 Bft) 95,74 %
05.01.2019 01:14 3,7 C 3,3 C 2,8 C 98 % 1031,0 hPa 0,0 l/m 0 min 0 min 0 W/m 9,7 km/h (2 Bft) 97,87 %
05.01.2019 01:16 3,7 C 3,3 C 2,8 C 98 % 1031,0 hPa 0,0 l/m 0 min 2 min 0 W/m 9,7 km/h (2 Bft) 97,87 %
05.01.2019 01:18 3,7 C 3,3 C 2,8 C 98 % 1031,0 hPa 0,0 l/m 0 min 2 min 0 W/m 12,9 km/h (3 Bft) 97,87 %
05.01.2019 01:20 3,7 C 3,3 C 2,8 C 98 % 1031,0 hPa 0,0 l/m 0 min 2 min 0 W/m 6,4 km/h (2 Bft) 97,87 %
05.01.2019 01:22 3,7 C 3,3 C 2,8 C 98 % 1030,9 hPa 0,0 l/m 0 min 2 min 0 W/m 9,7 km/h (2 Bft) 97,83 %
05.01.2019 01:24 3,7 C 3,3 C 2,8 C 98 % 1031,0 hPa 0,0 l/m 0 min 2 min 0 W/m 6,4 km/h (2 Bft) 97,87 %
05.01.2019 01:26 3,7 C 3,3 C 2,8 C 98 % 1030,9 hPa 0,0 l/m 0 min 2 min 0 W/m 19,3 km/h (3 Bft) 95,74 %
05.01.2019 01:28 3,7 C 3,3 C 2,8 C 98 % 1030,7 hPa 0,0 l/m 0 min 2 min 0 W/m 9,7 km/h (2 Bft) 97,87 %
05.01.2019 01:30 3,7 C 3,3 C 2,8 C 98 % 1030,7 hPa 0,0 l/m 0 min 0 min 0 W/m 9,7 km/h (2 Bft) 97,87 %
05.01.2019 01:32 3,7 C 3,3 C 2,8 C 98 % 1030,6 hPa 0,0 l/m 0 min 0 min 0 W/m 9,7 km/h (2 Bft) 97,87 %
05.01.2019 01:34 3,7 C 3,3 C 2,8 C 98 % 1030,7 hPa 0,0 l/m 0 min 0 min 0 W/m 12,9 km/h (3 Bft) 95,65 %
05.01.2019 01:36 3,7 C 3,3 C 2,8 C 98 % 1030,7 hPa 0,0 l/m 0 min 2 min 0 W/m 12,9 km/h (3 Bft) 97,87 %
05.01.2019 01:38 3,7 C 3,3 C 2,8 C 98 % 1030,7 hPa 0,0 l/m 0 min 2 min 0 W/m 16,1 km/h (3 Bft) 97,87 %
05.01.2019 01:40 3,8 C 3,3 C 2,8 C 98 % 1030,7 hPa 0,0 l/m 0 min 2 min 0 W/m 9,7 km/h (2 Bft) 97,87 %
05.01.2019 01:42 3,8 C 3,3 C 2,8 C 98 % 1030,8 hPa 0,0 l/m 0 min 2 min 0 W/m 9,7 km/h (2 Bft) 97,87 %
05.01.2019 01:44 3,8 C 3,3 C 2,8 C 98 % 1030,8 hPa 0,0 l/m 0 min 2 min 0 W/m 19,3 km/h (3 Bft) 97,87 %
05.01.2019 01:46 3,8 C 3,3 C 2,8 C 98 % 1030,7 hPa 0,0 l/m 0 min 2 min 0 W/m 9,7 km/h (2 Bft) 97,83 %
05.01.2019 01:48 3,8 C 3,3 C 2,8 C 98 % 1030,6 hPa 0,0 l/m 0 min 2 min 0 W/m 9,7 km/h (2 Bft) 97,87 %
05.01.2019 01:50 3,8 C 3,3 C 2,8 C 98 % 1030,5 hPa 0,0 l/m 0 min 2 min 0 W/m 9,7 km/h (2 Bft) 97,87 %
05.01.2019 01:52 3,8 C 3,3 C 2,8 C 98 % 1030,5 hPa 0,0 l/m 0 min 2 min 0 W/m 9,7 km/h (2 Bft) 93,62 %
05.01.2019 01:54 3,8 C 3,3 C 2,8 C 98 % 1030,5 hPa 0,0 l/m 0 min 2 min 0 W/m 6,4 km/h (2 Bft) 100,00 %
05.01.2019 01:56 3,8 C 3,3 C 2,8 C 98 % 1030,5 hPa 0,2 l/m 0 min 2 min 0 W/m 9,7 km/h (2 Bft) 95,74 %
05.01.2019 01:58 3,8 C 3,3 C 2,8 C 98 % 1030,6 hPa 0,0 l/m 0 min 2 min 0 W/m 6,4 km/h (2 Bft) 100,00 %
05.01.2019 02:00 3,9 C 3,3 C 2,8 C 98 % 1030,6 hPa 0,0 l/m 0 min 2 min 0 W/m 12,9 km/h (3 Bft) 100,00 %
05.01.2019 02:02 3,9 C 3,3 C 2,8 C 98 % 1030,5 hPa 0,0 l/m 0 min 2 min 0 W/m 9,7 km/h (2 Bft) 97,87 %
05.01.2019 02:04 3,9 C 3,3 C 2,8 C 98 % 1030,5 hPa 0,0 l/m 0 min 2 min 0 W/m 9,7 km/h (2 Bft) 97,87 %
05.01.2019 02:06 3,9 C 3,3 C 2,8 C 98 % 1030,6 hPa 0,0 l/m 0 min 2 min 0 W/m 12,9 km/h (3 Bft) 97,87 %
05.01.2019 02:08 3,9 C 3,3 C 2,8 C 99 % 1030,7 hPa 0,0 l/m 0 min 2 min 0 W/m 12,9 km/h (3 Bft) 100,00 %
05.01.2019 02:10 3,9 C 3,3 C 2,8 C 99 % 1030,6 hPa 0,0 l/m 0 min 0 min 0 W/m 9,7 km/h (2 Bft) 100,00 %
05.01.2019 02:12 3,9 C 3,3 C 2,8 C 99 % 1030,6 hPa 0,0 l/m 0 min 0 min 0 W/m 6,4 km/h (2 Bft) 100,00 %
05.01.2019 02:14 3,9 C 3,3 C 2,8 C 99 % 1030,7 hPa 0,0 l/m 0 min 2 min 0 W/m 6,4 km/h (2 Bft) 97,87 %
05.01.2019 02:16 3,9 C 3,3 C 2,8 C 99 % 1030,7 hPa 0,0 l/m 0 min 0 min 0 W/m 12,9 km/h (3 Bft) 97,87 %
05.01.2019 02:18 3,9 C 3,3 C 2,8 C 99 % 1030,7 hPa 0,0 l/m 0 min 2 min 0 W/m 9,7 km/h (2 Bft) 97,87 %
05.01.2019 02:20 3,9 C 3,3 C 2,8 C 99 % 1030,6 hPa 0,0 l/m 0 min 2 min 0 W/m 3,2 km/h (1 Bft) 97,83 %
05.01.2019 02:22 3,9 C 3,3 C 2,8 C 99 % 1030,7 hPa 0,0 l/m 0 min 2 min 0 W/m 6,4 km/h (2 Bft) 97,87 %
05.01.2019 02:24 4,0 C 3,3 C 2,8 C 99 % 1030,7 hPa 0,0 l/m 0 min 2 min 0 W/m 6,4 km/h (2 Bft) 97,87 %
05.01.2019 02:26 4,0 C 3,3 C 2,8 C 99 % 1030,8 hPa 0,0 l/m 0 min 2 min 0 W/m 9,7 km/h (2 Bft) 97,87 %
05.01.2019 02:28 4,0 C 3,3 C 2,8 C 99 % 1030,7 hPa 0,0 l/m 0 min 2 min 0 W/m 9,7 km/h (2 Bft) 97,87 %
05.01.2019 02:30 4,0 C 3,3 C 2,8 C 99 % 1030,6 hPa 0,0 l/m 0 min 2 min 0 W/m 6,4 km/h (2 Bft) 97,87 %
05.01.2019 02:32 4,1 C 3,3 C 2,8 C 99 % 1030,6 hPa 0,0 l/m 0 min 2 min 0 W/m 6,4 km/h (2 Bft) 95,65 %
05.01.2019 02:34 4,1 C 3,3 C 2,8 C 99 % 1030,6 hPa 0,2 l/m 0 min 2 min 0 W/m 9,7 km/h (2 Bft) 95,74 %
05.01.2019 02:36 4,1 C 3,3 C 2,8 C 99 % 1030,5 hPa 0,0 l/m 0 min 2 min 0 W/m 6,4 km/h (2 Bft) 95,74 %
05.01.2019 02:38 4,1 C 3,3 C 2,8 C 99 % 1030,5 hPa 0,0 l/m 0 min 2 min 0 W/m 6,4 km/h (2 Bft) 97,87 %
05.01.2019 02:40 4,1 C 3,3 C 3,3 C 99 % 1030,5 hPa 0,0 l/m 0 min 2 min 0 W/m 0,0 km/h (0 Bft) 97,87 %
05.01.2019 02:42 4,1 C 3,9 C 3,3 C 99 % 1030,5 hPa 0,0 l/m 0 min 2 min 0 W/m 9,7 km/h (2 Bft) 95,74 %
05.01.2019 02:44 4,1 C 3,9 C 3,3 C 99 % 1030,5 hPa 0,2 l/m 0 min 2 min 0 W/m 9,7 km/h (2 Bft) 97,83 %
05.01.2019 02:46 4,1 C 3,9 C 3,3 C 99 % 1030,6 hPa 0,0 l/m 0 min 2 min 0 W/m 6,4 km/h (2 Bft) 95,74 %
05.01.2019 02:48 4,2 C 3,9 C 3,3 C 99 % 1030,6 hPa 0,0 l/m 0 min 2 min 0 W/m 6,4 km/h (2 Bft) 95,74 %
05.01.2019 02:50 4,2 C 3,9 C 3,3 C 99 % 1030,5 hPa 0,0 l/m 0 min 2 min 0 W/m 3,2 km/h (1 Bft) 95,74 %
05.01.2019 02:52 4,2 C 3,9 C 3,3 C 99 % 1030,6 hPa 0,0 l/m 0 min 2 min 0 W/m 6,4 km/h (2 Bft) 97,87 %
05.01.2019 02:54 4,2 C 3,9 C 3,3 C 99 % 1030,5 hPa 0,0 l/m 0 min 2 min 0 W/m 3,2 km/h (1 Bft) 97,87 %
05.01.2019 02:56 4,2 C 3,9 C 3,3 C 99 % 1030,4 hPa 0,0 l/m 0 min 2 min 0 W/m 9,7 km/h (2 Bft) 97,83 %
05.01.2019 02:58 4,2 C 3,9 C 3,3 C 99 % 1030,5 hPa 0,0 l/m 0 min 2 min 0 W/m 6,4 km/h (2 Bft) 97,87 %
05.01.2019 03:00 4,2 C 3,9 C 3,3 C 99 % 1030,4 hPa 0,0 l/m 0 min 2 min 0 W/m 9,7 km/h (2 Bft) 97,87 %
05.01.2019 03:02 4,2 C 3,9 C 3,3 C 99 % 1030,3 hPa 0,0 l/m 0 min 2 min 0 W/m 9,7 km/h (2 Bft) 95,74 %
05.01.2019 03:04 4,3 C 3,9 C 3,3 C 99 % 1030,3 hPa 0,2 l/m 0 min 2 min 0 W/m 6,4 km/h (2 Bft) 95,74 %
05.01.2019 03:06 4,3 C 3,9 C 3,3 C 99 % 1030,2 hPa 0,0 l/m 0 min 2 min 0 W/m 6,4 km/h (2 Bft) 95,65 %
05.01.2019 03:08 4,3 C 3,9 C 3,3 C 99 % 1030,2 hPa 0,0 l/m 0 min 2 min 0 W/m 6,4 km/h (2 Bft) 100,00 %
05.01.2019 03:10 4,3 C 3,9 C 3,3 C 99 % 1030,3 hPa 0,0 l/m 0 min 2 min 0 W/m 9,7 km/h (2 Bft) 97,87 %
05.01.2019 03:12 4,3 C 3,9 C 3,3 C 99 % 1030,2 hPa 0,0 l/m 0 min 2 min 0 W/m 6,4 km/h (2 Bft) 97,87 %
05.01.2019 03:14 4,3 C 3,9 C 3,3 C 99 % 1030,1 hPa 0,0 l/m 0 min 2 min 0 W/m 6,4 km/h (2 Bft) 97,87 %
05.01.2019 03:16 4,3 C 3,9 C 3,3 C 99 % 1030,1 hPa 0,0 l/m 0 min 2 min 0 W/m 9,7 km/h (2 Bft) 97,87 %
05.01.2019 03:18 4,4 C 3,9 C 3,3 C 99 % 1030,1 hPa 0,0 l/m 0 min 2 min 0 W/m 9,7 km/h (2 Bft) 95,65 %
05.01.2019 03:20 4,4 C 3,9 C 3,3 C 99 % 1030,1 hPa 0,0 l/m 0 min 2 min 0 W/m 12,9 km/h (3 Bft) 95,74 %
05.01.2019 03:22 4,4 C 3,9 C 3,3 C 99 % 1030,1 hPa 0,0 l/m 0 min 2 min 0 W/m 19,3 km/h (3 Bft) 95,74 %
05.01.2019 03:24 4,4 C 3,9 C 3,3 C 99 % 1030,1 hPa 0,0 l/m 0 min 2 min 0 W/m 9,7 km/h (2 Bft) 95,74 %
05.01.2019 03:26 4,4 C 3,9 C 3,3 C 99 % 1030,1 hPa 0,0 l/m 0 min 0 min 0 W/m 9,7 km/h (2 Bft) 95,74 %
05.01.2019 03:28 4,4 C 3,9 C 3,3 C 99 % 1030,0 hPa 0,0 l/m 0 min 2 min 0 W/m 9,7 km/h (2 Bft) 97,87 %
05.01.2019 03:30 4,4 C 3,9 C 3,3 C 99 % 1030,0 hPa 0,0 l/m 0 min 0 min 0 W/m 16,1 km/h (3 Bft) 97,83 %
05.01.2019 03:32 4,4 C 3,9 C 3,3 C 99 % 1030,0 hPa 0,0 l/m 0 min 2 min 0 W/m 16,1 km/h (3 Bft) 95,74 %
05.01.2019 03:34 4,4 C 3,9 C 3,3 C 99 % 1030,0 hPa 0,0 l/m 0 min 2 min 0 W/m 16,1 km/h (3 Bft) 95,74 %
05.01.2019 03:36 4,5 C 3,9 C 3,3 C 99 % 1029,9 hPa 0,0 l/m 0 min 2 min 0 W/m 12,9 km/h (3 Bft) 97,87 %
05.01.2019 03:38 4,5 C 3,9 C 3,3 C 99 % 1029,9 hPa 0,2 l/m 0 min 2 min 0 W/m 16,1 km/h (3 Bft) 97,87 %
05.01.2019 03:40 4,5 C 3,9 C 3,3 C 99 % 1029,9 hPa 0,0 l/m 0 min 0 min 0 W/m 12,9 km/h (3 Bft) 97,87 %
05.01.2019 03:42 4,5 C 3,9 C 3,3 C 99 % 1029,9 hPa 0,0 l/m 0 min 0 min 0 W/m 12,9 km/h (3 Bft) 97,83 %
05.01.2019 03:44 4,5 C 3,9 C 3,3 C 99 % 1029,9 hPa 0,0 l/m 0 min 0 min 0 W/m 3,2 km/h (1 Bft) 97,87 %
05.01.2019 03:46 4,6 C 3,9 C 3,3 C 99 % 1029,8 hPa 0,0 l/m 0 min 2 min 0 W/m 19,3 km/h (3 Bft) 97,87 %
05.01.2019 03:48 4,6 C 3,9 C 3,3 C 99 % 1029,7 hPa 0,0 l/m 0 min 0 min 0 W/m 12,9 km/h (3 Bft) 97,87 %
05.01.2019 03:50 4,6 C 3,9 C 3,3 C 99 % 1029,6 hPa 0,0 l/m 0 min 2 min 0 W/m 9,7 km/h (2 Bft) 95,74 %
05.01.2019 03:52 4,6 C 3,9 C 3,3 C 99 % 1029,6 hPa 0,0 l/m 0 min 0 min 0 W/m 6,4 km/h (2 Bft) 97,87 %
05.01.2019 03:54 4,6 C 3,9 C 3,3 C 99 % 1029,6 hPa 0,0 l/m 0 min 0 min 0 W/m 9,7 km/h (2 Bft) 95,65 %
05.01.2019 03:56 4,6 C 3,9 C 3,3 C 99 % 1029,6 hPa 0,0 l/m 0 min 0 min 0 W/m 12,9 km/h (3 Bft) 95,74 %
05.01.2019 03:58 4,6 C 3,9 C 3,3 C 99 % 1029,7 hPa 0,0 l/m 0 min 0 min 0 W/m 9,7 km/h (2 Bft) 97,87 %
05.01.2019 04:00 4,6 C 3,9 C 3,3 C 99 % 1029,6 hPa 0,0 l/m 0 min 2 min 0 W/m 12,9 km/h (3 Bft) 100,00 %
05.01.2019 04:02 4,6 C 3,9 C 3,3 C 99 % 1029,6 hPa 0,0 l/m 0 min 2 min 0 W/m 6,4 km/h (2 Bft) 100,00 %
05.01.2019 04:04 4,6 C 3,9 C 3,3 C 99 % 1029,5 hPa 0,0 l/m 0 min 2 min 0 W/m 9,7 km/h (2 Bft) 97,87 %
05.01.2019 04:06 4,6 C 3,9 C 3,3 C 99 % 1029,6 hPa 0,0 l/m 0 min 2 min 0 W/m 16,1 km/h (3 Bft) 100,00 %
05.01.2019 04:08 4,7 C 3,9 C 3,3 C 99 % 1029,6 hPa 0,0 l/m 0 min 2 min 0 W/m 9,7 km/h (2 Bft) 100,00 %
05.01.2019 04:10 4,7 C 3,9 C 3,3 C 99 % 1029,5 hPa 0,0 l/m 0 min 2 min 0 W/m 6,4 km/h (2 Bft) 97,87 %
05.01.2019 04:12 4,7 C 3,9 C 3,3 C 99 % 1029,6 hPa 0,0 l/m 0 min 2 min 0 W/m 9,7 km/h (2 Bft) 97,87 %
05.01.2019 04:14 4,7 C 3,9 C 3,3 C 99 % 1029,5 hPa 0,0 l/m 0 min 2 min 0 W/m 9,7 km/h (2 Bft) 95,74 %
05.01.2019 04:16 4,7 C 4,4 C 3,9 C 99 % 1029,4 hPa 0,0 l/m 0 min 0 min 0 W/m 19,3 km/h (3 Bft) 97,87 %
05.01.2019 04:18 4,7 C 4,4 C 3,9 C 99 % 1029,4 hPa 0,0 l/m 0 min 2 min 0 W/m 9,7 km/h (2 Bft) 97,83 %
05.01.2019 04:20 4,7 C 4,4 C 3,9 C 99 % 1029,4 hPa 0,0 l/m 0 min 2 min 0 W/m 12,9 km/h (3 Bft) 97,87 %
05.01.2019 04:22 4,7 C 4,4 C 3,9 C 99 % 1029,4 hPa 0,0 l/m 0 min 2 min 0 W/m 6,4 km/h (2 Bft) 97,87 %
05.01.2019 04:24 4,7 C 4,4 C 3,9 C 99 % 1029,5 hPa 0,0 l/m 0 min 2 min 0 W/m 9,7 km/h (2 Bft) 97,87 %
05.01.2019 04:26 4,8 C 4,4 C 3,9 C 99 % 1029,5 hPa 0,0 l/m 0 min 2 min 0 W/m 12,9 km/h (3 Bft) 95,74 %
05.01.2019 04:28 4,8 C 4,4 C 3,9 C 99 % 1029,3 hPa 0,0 l/m 0 min 2 min 0 W/m 16,1 km/h (3 Bft) 97,83 %
05.01.2019 04:30 4,8 C 4,4 C 3,9 C 99 % 1029,4 hPa 0,0 l/m 0 min 2 min 0 W/m 12,9 km/h (3 Bft) 95,74 %
05.01.2019 04:32 4,8 C 4,4 C 3,9 C 99 % 1029,3 hPa 0,0 l/m 0 min 2 min 0 W/m 9,7 km/h (2 Bft) 97,87 %
05.01.2019 04:34 4,8 C 4,4 C 3,9 C 99 % 1029,4 hPa 0,0 l/m 0 min 2 min 0 W/m 19,3 km/h (3 Bft) 97,87 %
05.01.2019 04:36 4,8 C 4,4 C 3,9 C 99 % 1029,3 hPa 0,0 l/m 0 min 2 min 0 W/m 12,9 km/h (3 Bft) 97,87 %
05.01.2019 04:38 4,9 C 4,4 C 3,9 C 99 % 1029,2 hPa 0,0 l/m 0 min 2 min 0 W/m 19,3 km/h (3 Bft) 97,87 %
05.01.2019 04:40 4,9 C 4,4 C 3,9 C 99 % 1029,3 hPa 0,0 l/m 0 min 0 min 0 W/m 16,1 km/h (3 Bft) 97,83 %
05.01.2019 04:42 4,9 C 4,4 C 3,9 C 99 % 1029,2 hPa 0,0 l/m 0 min 0 min 0 W/m 9,7 km/h (2 Bft) 93,62 %
05.01.2019 04:44 4,9 C 4,4 C 3,9 C 99 % 1029,1 hPa 0,0 l/m 0 min 0 min 0 W/m 19,3 km/h (3 Bft) 95,74 %
05.01.2019 04:46 4,9 C 4,4 C 3,9 C 99 % 1029,1 hPa 0,0 l/m 0 min 0 min 0 W/m 12,9 km/h (3 Bft) 95,74 %
05.01.2019 04:48 5,0 C 4,4 C 3,9 C 99 % 1029,1 hPa 0,0 l/m 0 min 0 min 0 W/m 16,1 km/h (3 Bft) 95,74 %
05.01.2019 04:50 5,0 C 4,4 C 3,9 C 99 % 1029,1 hPa 0,0 l/m 0 min 0 min 0 W/m 22,5 km/h (4 Bft) 93,62 %
05.01.2019 04:52 5,0 C 4,4 C 3,9 C 99 % 1029,1 hPa 0,0 l/m 0 min 0 min 0 W/m 9,7 km/h (2 Bft) 95,65 %
05.01.2019 04:54 5,0 C 4,4 C 3,9 C 99 % 1029,1 hPa 0,0 l/m 0 min 0 min 0 W/m 9,7 km/h (2 Bft) 95,74 %
05.01.2019 04:56 5,0 C 4,4 C 3,9 C 99 % 1029,0 hPa 0,0 l/m 0 min 0 min 0 W/m 12,9 km/h (3 Bft) 93,62 %
05.01.2019 04:58 5,0 C 4,4 C 3,9 C 99 % 1028,9 hPa 0,0 l/m 0 min 0 min 0 W/m 12,9 km/h (3 Bft) 93,62 %
05.01.2019 05:00 5,0 C 4,4 C 3,9 C 99 % 1029,0 hPa 0,0 l/m 0 min 0 min 0 W/m 25,7 km/h (4 Bft) 93,62 %
05.01.2019 05:02 5,1 C 4,4 C 3,9 C 99 % 1029,0 hPa 0,0 l/m 0 min 0 min 0 W/m 6,4 km/h (2 Bft) 95,74 %
05.01.2019 05:04 5,0 C 4,4 C 3,9 C 99 % 1029,0 hPa 0,0 l/m 0 min 0 min 0 W/m 16,1 km/h (3 Bft) 95,65 %
05.01.2019 05:05 5,1 C 4,4 C 3,9 C 99 % 1029,0 hPa 0,0 l/m 0 min 0 min 0 W/m 16,1 km/h (3 Bft) 98,25 %
05.01.2019 05:10 5,1 C 4,4 C 3,9 C 99 % 1029,0 hPa 0,0 l/m 0 min 0 min 0 W/m 16,1 km/h (3 Bft) 100,00 %
05.01.2019 05:12 5,1 C 4,4 C 3,9 C 99 % 1029,0 hPa 0,0 l/m 0 min 0 min 0 W/m 6,4 km/h (2 Bft) 100,00 %
05.01.2019 05:14 5,1 C 4,4 C 3,9 C 99 % 1029,0 hPa 0,0 l/m 0 min 0 min 0 W/m 16,1 km/h (3 Bft) 100,00 %
05.01.2019 05:16 5,1 C 4,4 C 3,9 C 99 % 1028,9 hPa 0,0 l/m 0 min 0 min 0 W/m 12,9 km/h (3 Bft) 95,74 %
05.01.2019 05:18 5,1 C 4,4 C 3,9 C 99 % 1028,8 hPa 0,0 l/m 0 min 0 min 0 W/m 12,9 km/h (3 Bft) 92,00 %
05.01.2019 05:20 5,1 C 4,4 C 3,9 C 99 % 1028,7 hPa 0,0 l/m 0 min 0 min 0 W/m 16,1 km/h (3 Bft) 95,92 %
05.01.2019 05:22 5,1 C 4,4 C 3,9 C 99 % 1028,7 hPa 0,0 l/m 0 min 0 min 0 W/m 12,9 km/h (3 Bft) 97,87 %
05.01.2019 05:24 5,1 C 4,4 C 3,9 C 99 % 1028,7 hPa 0,0 l/m 0 min 0 min 0 W/m 19,3 km/h (3 Bft) 97,62 %
05.01.2019 05:26 5,1 C 4,4 C 3,9 C 99 % 1028,6 hPa 0,0 l/m 0 min 0 min 0 W/m 16,1 km/h (3 Bft) 97,96 %
05.01.2019 05:28 5,2 C 4,4 C 3,9 C 99 % 1028,6 hPa 0,0 l/m 0 min 0 min 0 W/m 6,4 km/h (2 Bft) 100,00 %
05.01.2019 05:30 5,2 C 4,4 C 3,9 C 99 % 1028,6 hPa 0,0 l/m 0 min 0 min 0 W/m 9,7 km/h (2 Bft) 100,00 %
05.01.2019 05:32 5,2 C 4,4 C 3,9 C 99 % 1028,6 hPa 0,0 l/m 0 min 0 min 0 W/m 6,4 km/h (2 Bft) 100,00 %
05.01.2019 05:34 5,2 C 4,4 C 3,9 C 99 % 1028,6 hPa 0,0 l/m 0 min 0 min 0 W/m 22,5 km/h (4 Bft) 100,00 %
05.01.2019 05:36 5,2 C 4,4 C 3,9 C 99 % 1028,6 hPa 0,0 l/m 0 min 0 min 0 W/m 12,9 km/h (3 Bft) 100,00 %
05.01.2019 05:38 5,2 C 4,4 C 3,9 C 99 % 1028,6 hPa 0,0 l/m 0 min 0 min 0 W/m 16,1 km/h (3 Bft) 100,00 %
05.01.2019 05:40 5,2 C 4,4 C 3,9 C 99 % 1028,6 hPa 0,0 l/m 0 min 0 min 0 W/m 16,1 km/h (3 Bft) 97,87 %
05.01.2019 05:42 5,2 C 4,4 C 3,9 C 99 % 1028,5 hPa 0,0 l/m 0 min 0 min 0 W/m 12,9 km/h (3 Bft) 100,00 %
05.01.2019 05:44 5,2 C 4,4 C 3,9 C 99 % 1028,6 hPa 0,0 l/m 0 min 0 min 0 W/m 12,9 km/h (3 Bft) 100,00 %
05.01.2019 05:46 5,2 C 5,0 C 3,9 C 99 % 1028,5 hPa 0,0 l/m 0 min 0 min 0 W/m 12,9 km/h (3 Bft) 100,00 %
05.01.2019 05:48 5,2 C 5,0 C 3,9 C 99 % 1028,5 hPa 0,0 l/m 0 min 0 min 0 W/m 16,1 km/h (3 Bft) 100,00 %
05.01.2019 05:50 5,3 C 5,0 C 3,9 C 99 % 1028,5 hPa 0,0 l/m 0 min 2 min 0 W/m 25,7 km/h (4 Bft) 97,83 %
05.01.2019 05:52 5,3 C 5,0 C 3,9 C 99 % 1028,4 hPa 0,0 l/m 0 min 0 min 0 W/m 16,1 km/h (3 Bft) 97,62 %
05.01.2019 05:54 5,3 C 5,0 C 3,9 C 99 % 1028,4 hPa 0,0 l/m 0 min 2 min 0 W/m 9,7 km/h (2 Bft) 96,00 %
05.01.2019 05:56 5,3 C 5,0 C 3,9 C 99 % 1028,4 hPa 0,0 l/m 0 min 0 min 0 W/m 9,7 km/h (2 Bft) 100,00 %
05.01.2019 05:58 5,3 C 5,0 C 4,4 C 99 % 1028,5 hPa 0,0 l/m 0 min 2 min 0 W/m 12,9 km/h (3 Bft) 100,00 %
05.01.2019 06:00 5,3 C 5,0 C 4,4 C 99 % 1028,4 hPa 0,0 l/m 0 min 2 min 0 W/m 9,7 km/h (2 Bft) 100,00 %
05.01.2019 06:02 5,3 C 5,0 C 4,4 C 99 % 1028,3 hPa 0,0 l/m 0 min 2 min 0 W/m 9,7 km/h (2 Bft) 97,56 %
05.01.2019 06:04 5,3 C 5,0 C 4,4 C 99 % 1028,3 hPa 0,0 l/m 0 min 2 min 0 W/m 12,9 km/h (3 Bft) 97,87 %
05.01.2019 06:08 5,3 C 5,0 C 4,4 C 99 % 1028,2 hPa 0,0 l/m 0 min 4 min 0 W/m 12,9 km/h (3 Bft) 100,00 %
05.01.2019 06:10 5,3 C 5,0 C 4,4 C 99 % 1028,2 hPa 0,0 l/m 0 min 0 min 0 W/m 9,7 km/h (2 Bft) 97,96 %
05.01.2019 06:12 5,3 C 5,0 C 4,4 C 99 % 1028,1 hPa 0,0 l/m 0 min 2 min 0 W/m 16,1 km/h (3 Bft) 98,00 %
05.01.2019 06:14 5,3 C 5,0 C 4,4 C 99 % 1028,1 hPa 0,0 l/m 0 min 0 min 0 W/m 9,7 km/h (2 Bft) 97,83 %
05.01.2019 06:16 5,4 C 5,0 C 4,4 C 99 % 1028,2 hPa 0,0 l/m 0 min 2 min 0 W/m 9,7 km/h (2 Bft) 97,62 %
05.01.2019 06:18 5,4 C 5,0 C 4,4 C 99 % 1028,2 hPa 0,0 l/m 0 min 2 min 0 W/m 22,5 km/h (4 Bft) 98,00 %
05.01.2019 06:20 5,4 C 5,0 C 4,4 C 99 % 1028,1 hPa 0,0 l/m 0 min 0 min 0 W/m 12,9 km/h (3 Bft) 97,96 %
05.01.2019 06:22 5,4 C 5,0 C 4,4 C 99 % 1028,1 hPa 0,0 l/m 0 min 0 min 0 W/m 12,9 km/h (3 Bft) 97,87 %
05.01.2019 06:24 5,4 C 5,0 C 4,4 C 99 % 1028,2 hPa 0,0 l/m 0 min 0 min 0 W/m 12,9 km/h (3 Bft) 97,87 %
05.01.2019 06:26 5,4 C 5,0 C 4,4 C 99 % 1028,1 hPa 0,0 l/m 0 min 0 min 0 W/m 16,1 km/h (3 Bft) 97,56 %
05.01.2019 06:28 5,4 C 5,0 C 4,4 C 99 % 1028,1 hPa 0,0 l/m 0 min 2 min 0 W/m 12,9 km/h (3 Bft) 97,87 %
05.01.2019 06:30 5,4 C 5,0 C 4,4 C 99 % 1028,1 hPa 0,0 l/m 0 min 0 min 0 W/m 16,1 km/h (3 Bft) 98,00 %
05.01.2019 06:32 5,4 C 5,0 C 4,4 C 99 % 1028,1 hPa 0,0 l/m 0 min 2 min 0 W/m 12,9 km/h (3 Bft) 95,74 %
05.01.2019 06:34 5,4 C 5,0 C 4,4 C 99 % 1028,0 hPa 0,2 l/m 0 min 0 min 0 W/m 19,3 km/h (3 Bft) 97,96 %
05.01.2019 06:36 5,5 C 5,0 C 4,4 C 99 % 1028,0 hPa 0,0 l/m 0 min 0 min 0 W/m 25,7 km/h (4 Bft) 95,74 %
05.01.2019 06:38 5,5 C 5,0 C 4,4 C 99 % 1028,0 hPa 0,0 l/m 0 min 0 min 0 W/m 12,9 km/h (3 Bft) 100,00 %
05.01.2019 06:40 5,5 C 5,0 C 4,4 C 99 % 1028,1 hPa 0,0 l/m 0 min 0 min 0 W/m 9,7 km/h (2 Bft) 93,62 %
05.01.2019 06:42 5,5 C 5,0 C 4,4 C 99 % 1028,1 hPa 0,0 l/m 0 min 0 min 0 W/m 12,9 km/h (3 Bft) 96,00 %
05.01.2019 06:44 5,5 C 5,0 C 4,4 C 99 % 1028,0 hPa 0,0 l/m 0 min 0 min 0 W/m 6,4 km/h (2 Bft) 97,96 %
05.01.2019 06:46 5,5 C 5,0 C 4,4 C 99 % 1028,1 hPa 0,0 l/m 0 min 0 min 0 W/m 9,7 km/h (2 Bft) 95,74 %
05.01.2019 06:48 5,5 C 5,0 C 4,4 C 99 % 1028,1 hPa 0,0 l/m 0 min 0 min 0 W/m 9,7 km/h (2 Bft) 97,83 %
05.01.2019 06:50 5,6 C 5,0 C 4,4 C 99 % 1028,2 hPa 0,0 l/m 0 min 0 min 0 W/m 6,4 km/h (2 Bft) 97,87 %
05.01.2019 06:52 5,6 C 5,0 C 4,4 C 99 % 1028,2 hPa 0,0 l/m 0 min 0 min 0 W/m 9,7 km/h (2 Bft) 97,62 %
05.01.2019 06:54 5,6 C 5,0 C 4,4 C 99 % 1028,2 hPa 0,0 l/m 0 min 0 min 0 W/m 12,9 km/h (3 Bft) 98,00 %
05.01.2019 06:56 5,6 C 5,0 C 4,4 C 99 % 1028,2 hPa 0,0 l/m 0 min 0 min 0 W/m 9,7 km/h (2 Bft) 97,83 %
05.01.2019 06:58 5,6 C 5,0 C 4,4 C 99 % 1028,1 hPa 0,0 l/m 0 min 0 min 0 W/m 19,3 km/h (3 Bft) 98,00 %
05.01.2019 07:00 5,6 C 5,0 C 4,4 C 99 % 1028,3 hPa 0,0 l/m 0 min 0 min 0 W/m 12,9 km/h (3 Bft) 97,83 %
05.01.2019 07:02 5,6 C 5,0 C 4,4 C 99 % 1028,1 hPa 0,0 l/m 0 min 0 min 0 W/m 12,9 km/h (3 Bft) 100,00 %
05.01.2019 07:04 5,7 C 5,0 C 4,4 C 99 % 1028,2 hPa 0,0 l/m 0 min 0 min 0 W/m 12,9 km/h (3 Bft) 100,00 %
05.01.2019 07:06 5,7 C 5,0 C 4,4 C 99 % 1028,2 hPa 0,0 l/m 0 min 0 min 0 W/m 9,7 km/h (2 Bft) 100,00 %
05.01.2019 07:08 5,7 C 5,6 C 4,4 C 99 % 1028,2 hPa 0,0 l/m 0 min 0 min 0 W/m 16,1 km/h (3 Bft) 100,00 %
05.01.2019 07:10 5,7 C 5,6 C 4,4 C 99 % 1028,2 hPa 0,0 l/m 0 min 0 min 0 W/m 16,1 km/h (3 Bft) 97,87 %
05.01.2019 07:12 5,8 C 5,6 C 4,4 C 99 % 1028,3 hPa 0,0 l/m 0 min 0 min 0 W/m 9,7 km/h (2 Bft) 97,87 %
05.01.2019 07:14 5,8 C 5,6 C 4,4 C 99 % 1028,2 hPa 0,0 l/m 0 min 0 min 0 W/m 19,3 km/h (3 Bft) 93,88 %
05.01.2019 07:16 5,8 C 5,6 C 4,4 C 99 % 1028,2 hPa 0,0 l/m 0 min 0 min 0 W/m 19,3 km/h (3 Bft) 87,23 %
05.01.2019 07:18 5,8 C 5,6 C 5,0 C 99 % 1028,2 hPa 0,0 l/m 0 min 0 min 0 W/m 19,3 km/h (3 Bft) 82,98 %
05.01.2019 07:20 5,9 C 5,6 C 5,0 C 99 % 1028,2 hPa 0,0 l/m 0 min 0 min 0 W/m 16,1 km/h (3 Bft) 97,62 %
05.01.2019 07:22 5,9 C 5,6 C 5,0 C 99 % 1028,2 hPa 0,0 l/m 0 min 0 min 0 W/m 12,9 km/h (3 Bft) 95,92 %
05.01.2019 07:24 5,9 C 5,6 C 5,0 C 99 % 1028,3 hPa 0,0 l/m 0 min 0 min 0 W/m 22,5 km/h (4 Bft) 89,80 %
05.01.2019 07:26 5,9 C 5,6 C 5,0 C 99 % 1028,2 hPa 0,0 l/m 0 min 0 min 0 W/m 22,5 km/h (4 Bft) 95,74 %
05.01.2019 07:28 5,9 C 5,6 C 5,0 C 99 % 1028,2 hPa 0,0 l/m 0 min 0 min 0 W/m 22,5 km/h (4 Bft) 89,36 %
05.01.2019 07:30 5,9 C 5,6 C 5,0 C 99 % 1028,2 hPa 0,0 l/m 0 min 0 min 0 W/m 19,3 km/h (3 Bft) 95,74 %
05.01.2019 07:32 5,9 C 5,6 C 5,0 C 99 % 1028,2 hPa 0,0 l/m 0 min 0 min 0 W/m 22,5 km/h (4 Bft) 93,48 %
05.01.2019 07:34 6,0 C 5,6 C 5,0 C 99 % 1028,2 hPa 0,0 l/m 0 min 0 min 0 W/m 22,5 km/h (4 Bft) 85,37 %
05.01.2019 07:36 6,0 C 5,6 C 5,0 C 99 % 1028,1 hPa 0,0 l/m 0 min 0 min 0 W/m 25,7 km/h (4 Bft) 86,00 %
05.01.2019 07:38 6,0 C 5,6 C 5,0 C 99 % 1028,2 hPa 0,0 l/m 0 min 0 min 0 W/m 29,0 km/h (5 Bft) 82,98 %
05.01.2019 07:40 6,0 C 5,6 C 5,0 C 99 % 1028,2 hPa 0,0 l/m 0 min 0 min 0 W/m 22,5 km/h (4 Bft) 91,49 %
05.01.2019 07:42 6,0 C 5,6 C 5,0 C 99 % 1028,1 hPa 0,0 l/m 0 min 0 min 0 W/m 22,5 km/h (4 Bft) 87,23 %
05.01.2019 07:44 6,0 C 5,6 C 5,0 C 99 % 1028,2 hPa 0,0 l/m 0 min 0 min 0 W/m 16,1 km/h (3 Bft) 82,61 %
05.01.2019 07:46 6,0 C 5,6 C 5,0 C 99 % 1028,2 hPa 0,0 l/m 0 min 0 min 0 W/m 25,7 km/h (4 Bft) 82,00 %
05.01.2019 07:48 6,0 C 5,6 C 5,0 C 99 % 1028,2 hPa 0,0 l/m 0 min 0 min 0 W/m 16,1 km/h (3 Bft) 84,78 %
05.01.2019 07:50 6,0 C 5,6 C 5,0 C 99 % 1028,3 hPa 0,0 l/m 0 min 0 min 0 W/m 19,3 km/h (3 Bft) 80,95 %
05.01.2019 07:52 6,0 C 5,6 C 5,0 C 99 % 1028,3 hPa 0,0 l/m 0 min 0 min 0 W/m 29,0 km/h (5 Bft) 98,00 %
05.01.2019 07:54 6,0 C 5,6 C 5,0 C 99 % 1028,3 hPa 0,0 l/m 0 min 0 min 0 W/m 19,3 km/h (3 Bft) 91,84 %
05.01.2019 07:56 6,0 C 5,6 C 5,0 C 99 % 1028,4 hPa 0,0 l/m 0 min 0 min 0 W/m 25,7 km/h (4 Bft) 97,87 %
05.01.2019 07:58 6,0 C 5,6 C 5,0 C 99 % 1028,4 hPa 0,0 l/m 0 min 0 min 0 W/m 19,3 km/h (3 Bft) 97,87 %
05.01.2019 08:00 6,0 C 5,6 C 5,0 C 99 % 1028,4 hPa 0,0 l/m 0 min 0 min 0 W/m 16,1 km/h (3 Bft) 95,65 %
05.01.2019 08:02 6,0 C 5,6 C 5,0 C 99 % 1028,4 hPa 0,0 l/m 0 min 0 min 0 W/m 16,1 km/h (3 Bft) 97,62 %
05.01.2019 08:04 5,9 C 5,6 C 5,0 C 99 % 1028,5 hPa 0,0 l/m 0 min 0 min 0 W/m 19,3 km/h (3 Bft) 98,00 %
05.01.2019 08:06 5,9 C 5,6 C 4,4 C 99 % 1028,5 hPa 0,0 l/m 0 min 0 min 0 W/m 12,9 km/h (3 Bft) 97,83 %
05.01.2019 08:08 5,9 C 5,6 C 4,4 C 99 % 1028,5 hPa 0,0 l/m 0 min 0 min 0 W/m 19,3 km/h (3 Bft) 93,62 %
05.01.2019 08:10 5,9 C 5,6 C 5,0 C 99 % 1028,5 hPa 0,0 l/m 0 min 0 min 0 W/m 19,3 km/h (3 Bft) 97,87 %
05.01.2019 08:12 5,9 C 5,6 C 5,0 C 99 % 1028,5 hPa 0,0 l/m 0 min 0 min 0 W/m 25,7 km/h (4 Bft) 97,96 %
05.01.2019 08:14 5,9 C 5,6 C 5,0 C 99 % 1028,5 hPa 0,0 l/m 0 min 0 min 0 W/m 25,7 km/h (4 Bft) 100,00 %
05.01.2019 08:16 5,9 C 5,6 C 5,0 C 99 % 1028,5 hPa 0,0 l/m 0 min 0 min 0 W/m 25,7 km/h (4 Bft) 97,62 %
05.01.2019 08:18 5,9 C 5,6 C 5,0 C 99 % 1028,5 hPa 0,0 l/m 0 min 0 min 0 W/m 16,1 km/h (3 Bft) 100,00 %
05.01.2019 08:20 5,9 C 5,6 C 5,0 C 99 % 1028,5 hPa 0,0 l/m 0 min 0 min 0 W/m 25,7 km/h (4 Bft) 98,00 %
05.01.2019 08:22 5,9 C 5,6 C 5,0 C 99 % 1028,5 hPa 0,0 l/m 0 min 0 min 0 W/m 19,3 km/h (3 Bft) 100,00 %
05.01.2019 08:24 5,9 C 5,6 C 5,0 C 99 % 1028,5 hPa 0,0 l/m 0 min 0 min 0 W/m 16,1 km/h (3 Bft) 97,87 %
05.01.2019 08:26 5,9 C 5,6 C 5,0 C 99 % 1028,6 hPa 0,0 l/m 0 min 0 min 0 W/m 22,5 km/h (4 Bft) 95,24 %
05.01.2019 08:28 5,9 C 5,6 C 5,0 C 99 % 1028,5 hPa 0,0 l/m 0 min 0 min 0 W/m 9,7 km/h (2 Bft) 100,00 %
05.01.2019 08:30 5,9 C 5,6 C 5,0 C 99 % 1028,5 hPa 0,0 l/m 0 min 0 min 0 W/m 22,5 km/h (4 Bft) 100,00 %
05.01.2019 08:32 6,0 C 5,6 C 5,0 C 99 % 1028,4 hPa 0,0 l/m 0 min 0 min 0 W/m 16,1 km/h (3 Bft) 97,87 %
05.01.2019 08:34 5,9 C 5,6 C 5,0 C 99 % 1028,5 hPa 0,0 l/m 0 min 0 min 0 W/m 12,9 km/h (3 Bft) 100,00 %
05.01.2019 08:36 5,9 C 5,6 C 5,0 C 99 % 1028,5 hPa 0,0 l/m 0 min 0 min 0 W/m 16,1 km/h (3 Bft) 97,87 %
05.01.2019 08:38 5,9 C 5,6 C 4,4 C 99 % 1028,5 hPa 0,0 l/m 0 min 0 min 0 W/m 12,9 km/h (3 Bft) 100,00 %
05.01.2019 08:40 5,9 C 5,6 C 4,4 C 99 % 1028,5 hPa 0,0 l/m 0 min 0 min 0 W/m 19,3 km/h (3 Bft) 97,87 %
05.01.2019 08:42 5,9 C 5,6 C 5,0 C 99 % 1028,6 hPa 0,0 l/m 0 min 0 min 0 W/m 22,5 km/h (4 Bft) 100,00 %
05.01.2019 08:44 5,9 C 5,6 C 5,0 C 99 % 1028,6 hPa 0,0 l/m 0 min 0 min 0 W/m 9,7 km/h (2 Bft) 97,87 %
05.01.2019 08:46 5,9 C 5,6 C 4,4 C 99 % 1028,7 hPa 0,0 l/m 0 min 0 min 0 W/m 16,1 km/h (3 Bft) 100,00 %
05.01.2019 08:48 5,9 C 5,6 C 4,4 C 99 % 1028,6 hPa 0,0 l/m 0 min 0 min 0 W/m 16,1 km/h (3 Bft) 100,00 %
05.01.2019 08:50 5,9 C 5,6 C 5,0 C 99 % 1028,6 hPa 0,0 l/m 0 min 0 min 0 W/m 19,3 km/h (3 Bft) 98,00 %
05.01.2019 08:52 5,9 C 5,6 C 4,4 C 99 % 1028,7 hPa 0,0 l/m 0 min 0 min 0 W/m 12,9 km/h (3 Bft) 97,92 %
05.01.2019 08:54 5,9 C 5,6 C 5,0 C 99 % 1028,7 hPa 0,0 l/m 0 min 0 min 0 W/m 16,1 km/h (3 Bft) 97,87 %
05.01.2019 08:56 5,9 C 5,6 C 5,0 C 99 % 1028,6 hPa 0,0 l/m 0 min 0 min 0 W/m 19,3 km/h (3 Bft) 97,87 %
05.01.2019 08:58 5,9 C 5,6 C 5,0 C 99 % 1028,6 hPa 0,0 l/m 0 min 0 min 0 W/m 16,1 km/h (3 Bft) 97,83 %
05.01.2019 09:00 5,9 C 5,6 C 5,0 C 99 % 1028,6 hPa 0,0 l/m 0 min 0 min 2 W/m 12,9 km/h (3 Bft) 97,67 %
05.01.2019 09:02 5,9 C 5,6 C 5,0 C 99 % 1028,6 hPa 0,0 l/m 0 min 0 min 5 W/m 16,1 km/h (3 Bft) 100,00 %
05.01.2019 09:04 5,9 C 5,6 C 5,0 C 99 % 1028,6 hPa 0,0 l/m 0 min 0 min 7 W/m 19,3 km/h (3 Bft) 95,83 %
05.01.2019 09:06 5,9 C 5,6 C 5,0 C 99 % 1028,6 hPa 0,0 l/m 0 min 0 min 7 W/m 16,1 km/h (3 Bft) 97,87 %
05.01.2019 09:08 5,9 C 5,6 C 5,0 C 99 % 1028,6 hPa 0,0 l/m 0 min 0 min 7 W/m 19,3 km/h (3 Bft) 97,83 %
05.01.2019 09:10 5,9 C 5,6 C 5,0 C 99 % 1028,6 hPa 0,0 l/m 0 min 0 min 5 W/m 25,7 km/h (4 Bft) 100,00 %
05.01.2019 09:12 5,9 C 5,6 C 5,0 C 99 % 1028,6 hPa 0,0 l/m 0 min 0 min 5 W/m 19,3 km/h (3 Bft) 97,67 %
05.01.2019 09:14 5,9 C 5,6 C 5,0 C 99 % 1028,7 hPa 0,0 l/m 0 min 0 min 5 W/m 25,7 km/h (4 Bft) 97,87 %
05.01.2019 09:16 5,9 C 5,6 C 5,0 C 99 % 1028,7 hPa 0,0 l/m 0 min 0 min 8 W/m 12,9 km/h (3 Bft) 97,87 %
05.01.2019 09:18 5,9 C 5,6 C 5,0 C 99 % 1028,5 hPa 0,0 l/m 0 min 0 min 10 W/m 16,1 km/h (3 Bft) 97,83 %
05.01.2019 09:20 5,9 C 5,6 C 5,0 C 99 % 1028,5 hPa 0,0 l/m 0 min 0 min 10 W/m 16,1 km/h (3 Bft) 98,00 %
05.01.2019 09:22 5,9 C 5,6 C 5,0 C 99 % 1028,5 hPa 0,0 l/m 0 min 2 min 10 W/m 22,5 km/h (4 Bft) 97,92 %
05.01.2019 09:24 5,9 C 5,6 C 5,0 C 99 % 1028,5 hPa 0,0 l/m 0 min 2 min 12 W/m 29,0 km/h (5 Bft) 95,74 %
05.01.2019 09:26 6,0 C 5,6 C 5,0 C 99 % 1028,7 hPa 0,0 l/m 0 min 2 min 12 W/m 19,3 km/h (3 Bft) 95,74 %
05.01.2019 09:28 6,0 C 5,6 C 5,0 C 99 % 1028,6 hPa 0,0 l/m 0 min 2 min 12 W/m 22,5 km/h (4 Bft) 97,67 %
05.01.2019 09:30 5,9 C 5,6 C 5,0 C 99 % 1028,6 hPa 0,0 l/m 0 min 2 min 14 W/m 25,7 km/h (4 Bft) 95,92 %
05.01.2019 09:32 5,9 C 5,6 C 5,0 C 99 % 1028,6 hPa 0,0 l/m 0 min 2 min 16 W/m 19,3 km/h (3 Bft) 97,92 %
05.01.2019 09:34 5,9 C 5,6 C 5,0 C 99 % 1028,6 hPa 0,0 l/m 0 min 0 min 16 W/m 19,3 km/h (3 Bft) 97,87 %
05.01.2019 09:36 5,9 C 5,6 C 5,0 C 99 % 1028,6 hPa 0,0 l/m 0 min 2 min 19 W/m 16,1 km/h (3 Bft) 97,87 %
05.01.2019 09:38 5,9 C 5,6 C 5,0 C 99 % 1028,7 hPa 0,0 l/m 0 min 2 min 19 W/m 22,5 km/h (4 Bft) 95,74 %
05.01.2019 09:40 6,0 C 5,6 C 5,0 C 99 % 1028,6 hPa 0,0 l/m 0 min 2 min 19 W/m 19,3 km/h (3 Bft) 94,29 %
05.01.2019 09:42 6,0 C 5,6 C 5,0 C 99 % 1028,7 hPa 0,0 l/m 0 min 2 min 20 W/m 19,3 km/h (3 Bft) 96,30 %
05.01.2019 09:44 5,9 C 5,6 C 5,0 C 99 % 1028,7 hPa 0,0 l/m 0 min 2 min 23 W/m 12,9 km/h (3 Bft) 96,00 %
05.01.2019 09:46 5,9 C 5,6 C 5,0 C 99 % 1028,6 hPa 0,0 l/m 0 min 0 min 26 W/m 12,9 km/h (3 Bft) 93,62 %
05.01.2019 09:48 6,0 C 5,6 C 5,0 C 99 % 1028,7 hPa 0,0 l/m 0 min 0 min 25 W/m 9,7 km/h (2 Bft) 93,75 %
05.01.2019 09:50 5,9 C 5,6 C 5,0 C 99 % 1028,6 hPa 0,0 l/m 0 min 0 min 21 W/m 12,9 km/h (3 Bft) 95,74 %
05.01.2019 09:52 6,0 C 5,6 C 5,0 C 99 % 1028,7 hPa 0,0 l/m 0 min 0 min 26 W/m 16,1 km/h (3 Bft) 95,74 %
05.01.2019 09:54 6,0 C 5,6 C 5,0 C 99 % 1028,7 hPa 0,2 l/m 0 min 0 min 24 W/m 19,3 km/h (3 Bft) 95,24 %
05.01.2019 09:56 6,0 C 5,6 C 5,0 C 99 % 1028,6 hPa 0,0 l/m 0 min 0 min 20 W/m 16,1 km/h (3 Bft) 94,00 %
05.01.2019 09:58 6,0 C 5,6 C 5,0 C 99 % 1028,6 hPa 0,0 l/m 0 min 0 min 20 W/m 16,1 km/h (3 Bft) 95,83 %
05.01.2019 10:00 6,0 C 5,6 C 5,0 C 99 % 1028,7 hPa 0,0 l/m 0 min 0 min 19 W/m 19,3 km/h (3 Bft) 93,62 %
05.01.2019 10:02 6,0 C 5,6 C 5,0 C 99 % 1028,8 hPa 0,0 l/m 0 min 0 min 22 W/m 25,7 km/h (4 Bft) 95,35 %
05.01.2019 10:04 5,9 C 5,6 C 5,0 C 99 % 1028,8 hPa 0,0 l/m 0 min 0 min 19 W/m 16,1 km/h (3 Bft) 97,83 %
05.01.2019 10:06 6,0 C 5,6 C 5,0 C 99 % 1028,7 hPa 0,0 l/m 0 min 0 min 18 W/m 19,3 km/h (3 Bft) 96,00 %
05.01.2019 10:08 6,0 C 5,6 C 5,0 C 99 % 1028,8 hPa 0,0 l/m 0 min 2 min 18 W/m 19,3 km/h (3 Bft) 97,92 %
05.01.2019 10:10 5,9 C 5,6 C 5,0 C 99 % 1028,8 hPa 0,0 l/m 0 min 0 min 18 W/m 25,7 km/h (4 Bft) 97,87 %
05.01.2019 10:12 5,9 C 5,6 C 5,0 C 99 % 1028,8 hPa 0,0 l/m 0 min 0 min 18 W/m 19,3 km/h (3 Bft) 97,87 %
05.01.2019 10:14 5,9 C 5,6 C 5,0 C 99 % 1028,8 hPa 0,0 l/m 0 min 0 min 18 W/m 22,5 km/h (4 Bft) 97,14 %
05.01.2019 10:16 5,9 C 5,6 C 5,0 C 99 % 1028,8 hPa 0,0 l/m 0 min 0 min 20 W/m 22,5 km/h (4 Bft) 97,87 %
05.01.2019 10:18 5,9 C 5,6 C 5,0 C 99 % 1028,9 hPa 0,0 l/m 0 min 0 min 19 W/m 19,3 km/h (3 Bft) 95,74 %
05.01.2019 10:20 5,9 C 5,6 C 5,0 C 99 % 1028,9 hPa 0,0 l/m 0 min 0 min 22 W/m 19,3 km/h (3 Bft) 98,15 %
05.01.2019 10:22 5,9 C 5,6 C 5,0 C 99 % 1028,9 hPa 0,0 l/m 0 min 0 min 25 W/m 22,5 km/h (4 Bft) 97,87 %
05.01.2019 10:24 5,9 C 5,6 C 5,0 C 99 % 1028,9 hPa 0,0 l/m 0 min 0 min 31 W/m 22,5 km/h (4 Bft) 98,00 %
05.01.2019 10:26 5,9 C 5,6 C 5,0 C 99 % 1028,9 hPa 0,0 l/m 0 min 0 min 32 W/m 12,9 km/h (3 Bft) 97,92 %
05.01.2019 10:28 5,9 C 5,6 C 5,0 C 99 % 1028,8 hPa 0,0 l/m 0 min 0 min 32 W/m 16,1 km/h (3 Bft) 97,87 %
05.01.2019 10:30 5,9 C 5,6 C 5,0 C 99 % 1028,8 hPa 0,0 l/m 0 min 0 min 30 W/m 19,3 km/h (3 Bft) 95,24 %
05.01.2019 10:32 5,9 C 5,6 C 5,0 C 99 % 1028,7 hPa 0,0 l/m 0 min 0 min 27 W/m 22,5 km/h (4 Bft) 96,00 %
05.01.2019 10:34 5,9 C 5,6 C 5,0 C 99 % 1028,8 hPa 0,0 l/m 0 min 0 min 31 W/m 16,1 km/h (3 Bft) 97,87 %
05.01.2019 10:36 5,9 C 5,6 C 5,0 C 99 % 1028,8 hPa 0,0 l/m 0 min 0 min 34 W/m 22,5 km/h (4 Bft) 97,92 %
05.01.2019 10:38 5,9 C 5,6 C 5,0 C 99 % 1028,9 hPa 0,0 l/m 0 min 0 min 28 W/m 16,1 km/h (3 Bft) 97,87 %
05.01.2019 10:40 5,9 C 5,6 C 5,0 C 99 % 1028,8 hPa 0,0 l/m 0 min 0 min 30 W/m 19,3 km/h (3 Bft) 95,74 %
05.01.2019 10:42 5,9 C 5,6 C 5,0 C 99 % 1028,9 hPa 0,0 l/m 0 min 2 min 32 W/m 16,1 km/h (3 Bft) 95,65 %
05.01.2019 10:44 5,9 C 5,6 C 5,0 C 99 % 1028,8 hPa 0,0 l/m 0 min 0 min 42 W/m 22,5 km/h (4 Bft) 97,87 %
05.01.2019 10:46 5,9 C 5,6 C 5,0 C 99 % 1029,0 hPa 0,0 l/m 0 min 0 min 45 W/m 22,5 km/h (4 Bft) 97,67 %
05.01.2019 10:48 5,9 C 5,6 C 5,0 C 99 % 1028,9 hPa 0,0 l/m 0 min 0 min 41 W/m 16,1 km/h (3 Bft) 98,00 %
05.01.2019 10:50 5,9 C 5,6 C 5,0 C 99 % 1029,0 hPa 0,0 l/m 0 min 0 min 37 W/m 19,3 km/h (3 Bft) 95,83 %
05.01.2019 10:52 5,9 C 5,6 C 5,0 C 99 % 1028,9 hPa 0,0 l/m 0 min 0 min 39 W/m 16,1 km/h (3 Bft) 95,74 %
05.01.2019 10:54 5,9 C 5,6 C 5,0 C 99 % 1028,9 hPa 0,0 l/m 0 min 0 min 47 W/m 19,3 km/h (3 Bft) 97,62 %
05.01.2019 10:56 6,0 C 5,6 C 5,0 C 99 % 1028,9 hPa 0,0 l/m 0 min 0 min 53 W/m 16,1 km/h (3 Bft) 96,00 %
05.01.2019 10:58 6,0 C 5,6 C 5,0 C 99 % 1028,9 hPa 0,0 l/m 0 min 0 min 51 W/m 16,1 km/h (3 Bft) 97,87 %
05.01.2019 11:00 6,0 C 5,6 C 5,0 C 99 % 1028,8 hPa 0,0 l/m 0 min 0 min 53 W/m 22,5 km/h (4 Bft) 95,74 %
05.01.2019 11:02 6,0 C 5,6 C 5,0 C 99 % 1028,8 hPa 0,0 l/m 0 min 0 min 51 W/m 22,5 km/h (4 Bft) 95,83 %
05.01.2019 11:04 6,0 C 5,6 C 5,0 C 99 % 1028,8 hPa 0,0 l/m 0 min 0 min 42 W/m 22,5 km/h (4 Bft) 93,62 %
05.01.2019 11:06 6,0 C 5,6 C 5,0 C 99 % 1028,8 hPa 0,0 l/m 0 min 0 min 40 W/m 16,1 km/h (3 Bft) 95,65 %
05.01.2019 11:08 6,0 C 5,6 C 5,0 C 99 % 1028,8 hPa 0,0 l/m 0 min 0 min 38 W/m 12,9 km/h (3 Bft) 97,87 %
05.01.2019 11:10 6,0 C 5,6 C 5,0 C 99 % 1028,8 hPa 0,0 l/m 0 min 0 min 43 W/m 22,5 km/h (4 Bft) 97,87 %
05.01.2019 11:12 6,0 C 5,6 C 5,0 C 99 % 1028,9 hPa 0,0 l/m 0 min 0 min 46 W/m 19,3 km/h (3 Bft) 97,67 %
05.01.2019 11:14 6,0 C 5,6 C 5,0 C 99 % 1028,8 hPa 0,0 l/m 0 min 0 min 46 W/m 16,1 km/h (3 Bft) 95,92 %
05.01.2019 11:16 6,0 C 5,6 C 5,0 C 99 % 1028,8 hPa 0,0 l/m 0 min 0 min 47 W/m 25,7 km/h (4 Bft) 97,96 %
05.01.2019 11:18 6,0 C 5,6 C 5,0 C 99 % 1028,8 hPa 0,0 l/m 0 min 0 min 41 W/m 29,0 km/h (5 Bft) 97,83 %
05.01.2019 11:20 6,1 C 5,6 C 5,0 C 99 % 1028,8 hPa 0,0 l/m 0 min 0 min 47 W/m 19,3 km/h (3 Bft) 97,67 %
05.01.2019 11:22 6,0 C 5,6 C 5,0 C 99 % 1028,9 hPa 0,0 l/m 0 min 0 min 49 W/m 16,1 km/h (3 Bft) 100,00 %
05.01.2019 11:24 6,1 C 5,6 C 5,0 C 99 % 1028,7 hPa 0,0 l/m 0 min 0 min 48 W/m 16,1 km/h (3 Bft) 97,96 %
05.01.2019 11:26 6,1 C 5,6 C 5,0 C 99 % 1028,7 hPa 0,0 l/m 0 min 0 min 44 W/m 22,5 km/h (4 Bft) 100,00 %
05.01.2019 11:28 6,1 C 5,6 C 5,0 C 99 % 1028,8 hPa 0,0 l/m 0 min 0 min 44 W/m 19,3 km/h (3 Bft) 97,87 %
05.01.2019 11:30 6,1 C 5,6 C 5,0 C 99 % 1028,8 hPa 0,0 l/m 0 min 0 min 46 W/m 19,3 km/h (3 Bft) 95,83 %
05.01.2019 11:32 6,1 C 5,6 C 5,0 C 99 % 1028,6 hPa 0,0 l/m 0 min 0 min 45 W/m 12,9 km/h (3 Bft) 97,87 %
05.01.2019 11:34 6,1 C 5,6 C 5,0 C 99 % 1028,5 hPa 0,0 l/m 0 min 0 min 47 W/m 12,9 km/h (3 Bft) 100,00 %
05.01.2019 11:36 6,1 C 5,6 C 5,0 C 99 % 1028,6 hPa 0,0 l/m 0 min 0 min 51 W/m 22,5 km/h (4 Bft) 100,00 %
05.01.2019 11:38 6,1 C 5,6 C 5,0 C 99 % 1028,5 hPa 0,0 l/m 0 min 0 min 44 W/m 16,1 km/h (3 Bft) 100,00 %
05.01.2019 11:40 6,1 C 5,6 C 5,0 C 99 % 1028,5 hPa 0,0 l/m 0 min 0 min 50 W/m 25,7 km/h (4 Bft) 97,87 %
05.01.2019 11:42 6,1 C 5,6 C 5,0 C 99 % 1028,6 hPa 0,0 l/m 0 min 0 min 44 W/m 12,9 km/h (3 Bft) 100,00 %
05.01.2019 11:44 6,1 C 5,6 C 5,0 C 99 % 1028,5 hPa 0,0 l/m 0 min 0 min 35 W/m 16,1 km/h (3 Bft) 100,00 %
05.01.2019 11:46 6,1 C 5,6 C 5,0 C 99 % 1028,6 hPa 0,0 l/m 0 min 0 min 31 W/m 19,3 km/h (3 Bft) 100,00 %
05.01.2019 11:48 6,1 C 5,6 C 5,0 C 99 % 1028,5 hPa 0,0 l/m 0 min 0 min 31 W/m 22,5 km/h (4 Bft) 100,00 %
05.01.2019 11:50 6,1 C 5,6 C 5,0 C 99 % 1028,5 hPa 0,0 l/m 0 min 0 min 32 W/m 19,3 km/h (3 Bft) 100,00 %
05.01.2019 11:52 6,1 C 5,6 C 5,0 C 99 % 1028,5 hPa 0,2 l/m 0 min 0 min 35 W/m 19,3 km/h (3 Bft) 97,87 %
05.01.2019 11:54 6,1 C 5,6 C 5,0 C 99 % 1028,5 hPa 0,0 l/m 0 min 0 min 50 W/m 19,3 km/h (3 Bft) 97,92 %
05.01.2019 11:56 6,1 C 5,6 C 5,0 C 99 % 1028,5 hPa 0,0 l/m 0 min 0 min 59 W/m 12,9 km/h (3 Bft) 100,00 %
05.01.2019 11:58 6,1 C 5,6 C 5,0 C 99 % 1028,5 hPa 0,0 l/m 0 min 0 min 59 W/m 19,3 km/h (3 Bft) 95,74 %
05.01.2019 12:00 6,1 C 5,6 C 5,0 C 99 % 1028,4 hPa 0,0 l/m 0 min 0 min 64 W/m 22,5 km/h (4 Bft) 95,35 %
05.01.2019 12:02 6,2 C 5,6 C 5,0 C 99 % 1028,4 hPa 0,0 l/m 0 min 0 min 56 W/m 22,5 km/h (4 Bft) 93,48 %
05.01.2019 12:04 6,2 C 5,6 C 5,0 C 99 % 1028,4 hPa 0,0 l/m 0 min 0 min 59 W/m 16,1 km/h (3 Bft) 98,00 %
05.01.2019 12:07 6,2 C 6,1 C 5,6 C 99 % 1028,3 hPa 0,0 l/m 0 min 0 min 74 W/m 12,9 km/h (3 Bft) 94,29 %
05.01.2019 12:08 6,2 C 6,1 C 5,6 C 99 % 1028,3 hPa 0,0 l/m 0 min 0 min 82 W/m 19,3 km/h (3 Bft) 95,83 %
05.01.2019 12:10 6,3 C 6,1 C 5,6 C 99 % 1028,2 hPa 0,0 l/m 0 min 0 min 70 W/m 19,3 km/h (3 Bft) 95,74 %
05.01.2019 12:12 6,3 C 6,1 C 5,6 C 99 % 1028,2 hPa 0,0 l/m 0 min 0 min 84 W/m 16,1 km/h (3 Bft) 95,65 %
05.01.2019 12:14 6,4 C 6,1 C 5,6 C 99 % 1028,3 hPa 0,0 l/m 0 min 0 min 84 W/m 19,3 km/h (3 Bft) 95,74 %
05.01.2019 12:16 6,4 C 6,1 C 5,6 C 99 % 1028,2 hPa 0,0 l/m 0 min 0 min 82 W/m 22,5 km/h (4 Bft) 97,87 %
05.01.2019 12:18 6,4 C 6,1 C 5,6 C 99 % 1028,3 hPa 0,0 l/m 0 min 0 min 71 W/m 25,7 km/h (4 Bft) 95,74 %
05.01.2019 12:20 6,4 C 6,1 C 5,6 C 99 % 1028,2 hPa 0,0 l/m 0 min 0 min 65 W/m 25,7 km/h (4 Bft) 95,74 %
05.01.2019 12:22 6,4 C 6,1 C 5,6 C 99 % 1028,2 hPa 0,0 l/m 0 min 0 min 48 W/m 22,5 km/h (4 Bft) 91,49 %
05.01.2019 12:24 6,4 C 6,1 C 5,6 C 99 % 1028,2 hPa 0,0 l/m 0 min 0 min 52 W/m 19,3 km/h (3 Bft) 95,65 %
05.01.2019 12:26 6,4 C 6,1 C 5,6 C 99 % 1028,2 hPa 0,0 l/m 0 min 0 min 59 W/m 22,5 km/h (4 Bft) 95,74 %
05.01.2019 12:28 6,4 C 6,1 C 5,6 C 99 % 1028,1 hPa 0,0 l/m 0 min 0 min 52 W/m 29,0 km/h (5 Bft) 95,74 %
05.01.2019 12:30 6,4 C 6,1 C 5,6 C 99 % 1028,1 hPa 0,0 l/m 0 min 0 min 46 W/m 16,1 km/h (3 Bft) 95,74 %
05.01.2019 12:32 6,4 C 6,1 C 5,6 C 99 % 1028,2 hPa 0,0 l/m 0 min 0 min 49 W/m 19,3 km/h (3 Bft) 95,74 %
05.01.2019 12:34 6,4 C 6,1 C 5,6 C 99 % 1028,2 hPa 0,0 l/m 0 min 0 min 49 W/m 19,3 km/h (3 Bft) 93,62 %
05.01.2019 12:36 6,4 C 6,1 C 5,6 C 99 % 1028,3 hPa 0,0 l/m 0 min 0 min 57 W/m 19,3 km/h (3 Bft) 95,65 %
05.01.2019 12:38 6,4 C 6,1 C 5,6 C 99 % 1028,3 hPa 0,0 l/m 0 min 0 min 55 W/m 16,1 km/h (3 Bft) 95,83 %
05.01.2019 12:40 6,4 C 6,1 C 5,6 C 99 % 1028,1 hPa 0,0 l/m 0 min 0 min 56 W/m 12,9 km/h (3 Bft) 91,49 %
05.01.2019 12:42 6,4 C 6,1 C 5,6 C 99 % 1028,2 hPa 0,0 l/m 0 min 0 min 44 W/m 16,1 km/h (3 Bft) 93,62 %
05.01.2019 12:44 6,4 C 6,1 C 5,6 C 99 % 1028,1 hPa 0,0 l/m 0 min 0 min 49 W/m 19,3 km/h (3 Bft) 95,74 %
05.01.2019 12:46 6,4 C 6,1 C 5,6 C 99 % 1028,1 hPa 0,0 l/m 0 min 0 min 51 W/m 22,5 km/h (4 Bft) 95,65 %
05.01.2019 12:48 6,4 C 5,6 C 5,6 C 99 % 1028,2 hPa 0,0 l/m 0 min 0 min 54 W/m 25,7 km/h (4 Bft) 97,87 %
05.01.2019 12:50 6,4 C 5,6 C 5,6 C 99 % 1028,2 hPa 0,0 l/m 0 min 0 min 52 W/m 19,3 km/h (3 Bft) 93,62 %
05.01.2019 12:52 6,4 C 5,6 C 5,6 C 99 % 1028,1 hPa 0,0 l/m 0 min 0 min 52 W/m 22,5 km/h (4 Bft) 97,87 %
05.01.2019 12:54 6,4 C 5,6 C 5,6 C 99 % 1028,1 hPa 0,0 l/m 0 min 0 min 48 W/m 22,5 km/h (4 Bft) 97,87 %
05.01.2019 12:56 6,4 C 6,1 C 5,6 C 99 % 1028,1 hPa 0,0 l/m 0 min 0 min 49 W/m 19,3 km/h (3 Bft) 95,74 %
05.01.2019 12:58 6,4 C 6,1 C 5,6 C 99 % 1028,1 hPa 0,0 l/m 0 min 0 min 50 W/m 19,3 km/h (3 Bft) 95,65 %
05.01.2019 13:00 6,4 C 6,1 C 5,6 C 99 % 1028,1 hPa 0,0 l/m 0 min 0 min 56 W/m 19,3 km/h (3 Bft) 97,87 %
05.01.2019 13:02 6,4 C 6,1 C 5,6 C 99 % 1028,1 hPa 0,0 l/m 0 min 0 min 57 W/m 19,3 km/h (3 Bft) 95,74 %
05.01.2019 13:04 6,4 C 6,1 C 5,6 C 99 % 1028,2 hPa 0,0 l/m 0 min 0 min 61 W/m 22,5 km/h (4 Bft) 95,74 %
05.01.2019 13:06 6,4 C 6,1 C 5,6 C 99 % 1028,1 hPa 0,0 l/m 0 min 0 min 59 W/m 22,5 km/h (4 Bft) 97,87 %
05.01.2019 13:08 6,4 C 6,1 C 5,6 C 99 % 1028,1 hPa 0,0 l/m 0 min 0 min 61 W/m 25,7 km/h (4 Bft) 97,87 %
05.01.2019 13:10 6,4 C 6,1 C 5,6 C 99 % 1028,1 hPa 0,0 l/m 0 min 0 min 62 W/m 22,5 km/h (4 Bft) 97,87 %
05.01.2019 13:12 6,4 C 6,1 C 5,6 C 99 % 1028,0 hPa 0,0 l/m 0 min 0 min 74 W/m 12,9 km/h (3 Bft) 95,74 %
05.01.2019 13:14 6,4 C 6,1 C 5,6 C 99 % 1028,0 hPa 0,0 l/m 0 min 0 min 64 W/m 19,3 km/h (3 Bft) 100,00 %
05.01.2019 13:16 6,4 C 6,1 C 5,6 C 99 % 1028,0 hPa 0,0 l/m 0 min 0 min 48 W/m 22,5 km/h (4 Bft) 100,00 %
05.01.2019 13:18 6,4 C 6,1 C 5,6 C 99 % 1028,1 hPa 0,0 l/m 0 min 0 min 54 W/m 25,7 km/h (4 Bft) 100,00 %
05.01.2019 13:20 6,4 C 6,1 C 5,6 C 99 % 1028,0 hPa 0,0 l/m 0 min 0 min 52 W/m 19,3 km/h (3 Bft) 100,00 %
05.01.2019 13:22 6,4 C 6,1 C 5,6 C 99 % 1028,1 hPa 0,0 l/m 0 min 0 min 52 W/m 22,5 km/h (4 Bft) 100,00 %
05.01.2019 13:24 6,4 C 6,1 C 5,6 C 99 % 1028,0 hPa 0,0 l/m 0 min 0 min 50 W/m 29,0 km/h (5 Bft) 100,00 %
05.01.2019 13:26 6,4 C 5,6 C 5,6 C 99 % 1028,0 hPa 0,0 l/m 0 min 0 min 45 W/m 22,5 km/h (4 Bft) 100,00 %
05.01.2019 13:28 6,4 C 6,1 C 5,6 C 99 % 1028,0 hPa 0,0 l/m 0 min 0 min 41 W/m 16,1 km/h (3 Bft) 100,00 %
05.01.2019 13:30 6,4 C 6,1 C 5,6 C 99 % 1028,1 hPa 0,0 l/m 0 min 0 min 46 W/m 22,5 km/h (4 Bft) 97,87 %
05.01.2019 13:32 6,4 C 6,1 C 5,6 C 99 % 1028,1 hPa 0,0 l/m 0 min 0 min 44 W/m 22,5 km/h (4 Bft) 97,87 %
05.01.2019 13:34 6,4 C 5,6 C 5,6 C 99 % 1028,0 hPa 0,0 l/m 0 min 0 min 39 W/m 25,7 km/h (4 Bft) 95,74 %
05.01.2019 13:36 6,4 C 5,6 C 5,6 C 99 % 1028,1 hPa 0,0 l/m 0 min 0 min 43 W/m 16,1 km/h (3 Bft) 97,87 %
05.01.2019 13:38 6,4 C 5,6 C 5,6 C 99 % 1028,1 hPa 0,0 l/m 0 min 0 min 45 W/m 25,7 km/h (4 Bft) 97,83 %
05.01.2019 13:40 6,4 C 6,1 C 5,6 C 99 % 1028,0 hPa 0,0 l/m 0 min 0 min 56 W/m 16,1 km/h (3 Bft) 97,87 %
05.01.2019 13:42 6,4 C 6,1 C 5,6 C 99 % 1028,1 hPa 0,0 l/m 0 min 0 min 54 W/m 22,5 km/h (4 Bft) 100,00 %
05.01.2019 13:44 6,4 C 6,1 C 5,6 C 99 % 1028,0 hPa 0,0 l/m 0 min 0 min 51 W/m 22,5 km/h (4 Bft) 95,74 %
05.01.2019 13:46 6,4 C 6,1 C 5,6 C 99 % 1028,0 hPa 0,0 l/m 0 min 0 min 50 W/m 19,3 km/h (3 Bft) 97,87 %
05.01.2019 13:48 6,4 C 6,1 C 5,6 C 99 % 1028,0 hPa 0,0 l/m 0 min 0 min 62 W/m 16,1 km/h (3 Bft) 97,87 %
05.01.2019 13:50 6,4 C 6,1 C 5,6 C 99 % 1028,1 hPa 0,0 l/m 0 min 0 min 72 W/m 19,3 km/h (3 Bft) 97,83 %
05.01.2019 13:52 6,4 C 6,1 C 5,6 C 99 % 1028,1 hPa 0,0 l/m 0 min 0 min 70 W/m 16,1 km/h (3 Bft) 95,74 %
05.01.2019 13:54 6,4 C 6,1 C 5,6 C 99 % 1028,0 hPa 0,0 l/m 0 min 0 min 62 W/m 16,1 km/h (3 Bft) 97,87 %
05.01.2019 13:56 6,4 C 6,1 C 5,6 C 99 % 1028,1 hPa 0,0 l/m 0 min 0 min 54 W/m 12,9 km/h (3 Bft) 97,87 %
05.01.2019 13:58 6,4 C 6,1 C 5,6 C 99 % 1028,1 hPa 0,0 l/m 0 min 0 min 67 W/m 25,7 km/h (4 Bft) 97,87 %
05.01.2019 14:00 6,4 C 6,1 C 5,6 C 99 % 1028,1 hPa 0,0 l/m 0 min 0 min 49 W/m 16,1 km/h (3 Bft) 97,87 %
05.01.2019 14:02 6,4 C 6,1 C 5,6 C 99 % 1028,0 hPa 0,0 l/m 0 min 0 min 61 W/m 22,5 km/h (4 Bft) 95,65 %
05.01.2019 14:04 6,5 C 6,1 C 5,6 C 99 % 1028,1 hPa 0,0 l/m 0 min 0 min 66 W/m 19,3 km/h (3 Bft) 97,87 %
05.01.2019 14:06 6,4 C 6,1 C 5,6 C 99 % 1028,0 hPa 0,0 l/m 0 min 0 min 67 W/m 19,3 km/h (3 Bft) 97,87 %
05.01.2019 14:08 6,4 C 6,1 C 5,6 C 99 % 1028,1 hPa 0,0 l/m 0 min 0 min 59 W/m 16,1 km/h (3 Bft) 97,87 %
05.01.2019 14:10 6,4 C 6,1 C 5,6 C 99 % 1028,1 hPa 0,0 l/m 0 min 0 min 57 W/m 25,7 km/h (4 Bft) 97,87 %
05.01.2019 14:12 6,4 C 6,1 C 5,6 C 99 % 1028,1 hPa 0,0 l/m 0 min 0 min 70 W/m 29,0 km/h (5 Bft) 97,87 %
05.01.2019 14:14 6,4 C 6,1 C 5,6 C 99 % 1028,1 hPa 0,0 l/m 0 min 0 min 69 W/m 19,3 km/h (3 Bft) 97,83 %
05.01.2019 14:16 6,4 C 6,1 C 5,6 C 99 % 1028,0 hPa 0,0 l/m 0 min 0 min 67 W/m 12,9 km/h (3 Bft) 95,74 %
05.01.2019 14:18 6,4 C 6,1 C 5,6 C 99 % 1028,0 hPa 0,0 l/m 0 min 0 min 77 W/m 16,1 km/h (3 Bft) 97,87 %
05.01.2019 14:20 6,4 C 6,1 C 5,6 C 99 % 1028,0 hPa 0,0 l/m 0 min 0 min 65 W/m 29,0 km/h (5 Bft) 97,87 %
05.01.2019 14:22 6,4 C 6,1 C 5,6 C 99 % 1028,0 hPa 0,0 l/m 0 min 0 min 67 W/m 25,7 km/h (4 Bft) 95,74 %
05.01.2019 14:24 6,4 C 6,1 C 5,6 C 99 % 1028,0 hPa 0,0 l/m 0 min 0 min 82 W/m 16,1 km/h (3 Bft) 100,00 %
05.01.2019 14:26 6,5 C 6,1 C 5,6 C 99 % 1028,1 hPa 0,0 l/m 0 min 0 min 69 W/m 19,3 km/h (3 Bft) 95,74 %
05.01.2019 14:28 6,5 C 6,1 C 5,6 C 99 % 1028,1 hPa 0,0 l/m 0 min 0 min 61 W/m 12,9 km/h (3 Bft) 100,00 %
05.01.2019 14:30 6,5 C 6,1 C 5,6 C 99 % 1028,1 hPa 0,0 l/m 0 min 0 min 54 W/m 12,9 km/h (3 Bft) 100,00 %
05.01.2019 14:32 6,5 C 6,1 C 5,6 C 99 % 1028,1 hPa 0,0 l/m 0 min 0 min 46 W/m 22,5 km/h (4 Bft) 100,00 %
05.01.2019 14:34 6,5 C 6,1 C 5,6 C 99 % 1028,1 hPa 0,0 l/m 0 min 0 min 51 W/m 22,5 km/h (4 Bft) 95,74 %
05.01.2019 14:36 6,4 C 6,1 C 5,6 C 99 % 1028,1 hPa 0,0 l/m 0 min 0 min 48 W/m 16,1 km/h (3 Bft) 97,83 %
05.01.2019 14:38 6,4 C 6,1 C 5,6 C 99 % 1028,2 hPa 0,0 l/m 0 min 0 min 53 W/m 22,5 km/h (4 Bft) 97,87 %
05.01.2019 14:40 6,4 C 6,1 C 5,6 C 99 % 1028,1 hPa 0,0 l/m 0 min 0 min 45 W/m 19,3 km/h (3 Bft) 95,74 %
05.01.2019 14:42 6,4 C 5,6 C 5,6 C 99 % 1028,1 hPa 0,0 l/m 0 min 0 min 44 W/m 25,7 km/h (4 Bft) 97,87 %
05.01.2019 14:44 6,4 C 5,6 C 5,6 C 99 % 1028,1 hPa 0,0 l/m 0 min 0 min 47 W/m 32,2 km/h (5 Bft) 95,74 %
05.01.2019 14:46 6,4 C 6,1 C 5,6 C 99 % 1028,1 hPa 0,0 l/m 0 min 0 min 53 W/m 22,5 km/h (4 Bft) 97,87 %
05.01.2019 14:48 6,4 C 6,1 C 5,6 C 99 % 1028,1 hPa 0,0 l/m 0 min 0 min 44 W/m 22,5 km/h (4 Bft) 97,83 %
05.01.2019 14:50 6,4 C 5,6 C 5,6 C 99 % 1028,1 hPa 0,0 l/m 0 min 0 min 43 W/m 19,3 km/h (3 Bft) 97,87 %
05.01.2019 14:52 6,4 C 5,6 C 5,6 C 99 % 1028,2 hPa 0,0 l/m 0 min 0 min 40 W/m 22,5 km/h (4 Bft) 97,87 %
05.01.2019 14:54 6,4 C 5,6 C 5,6 C 99 % 1028,1 hPa 0,0 l/m 0 min 0 min 44 W/m 19,3 km/h (3 Bft) 97,87 %
05.01.2019 14:56 6,4 C 5,6 C 5,6 C 99 % 1028,1 hPa 0,0 l/m 0 min 0 min 45 W/m 16,1 km/h (3 Bft) 97,87 %
05.01.2019 14:58 6,4 C 5,6 C 5,6 C 99 % 1028,2 hPa 0,0 l/m 0 min 0 min 33 W/m 22,5 km/h (4 Bft) 95,74 %
05.01.2019 15:00 6,4 C 5,6 C 5,6 C 99 % 1028,2 hPa 0,0 l/m 0 min 0 min 36 W/m 19,3 km/h (3 Bft) 97,83 %
05.01.2019 15:02 6,4 C 5,6 C 5,6 C 99 % 1028,1 hPa 0,0 l/m 0 min 0 min 39 W/m 19,3 km/h (3 Bft) 97,87 %
05.01.2019 15:04 6,4 C 5,6 C 5,6 C 99 % 1028,3 hPa 0,0 l/m 0 min 0 min 32 W/m 22,5 km/h (4 Bft) 95,74 %
05.01.2019 15:06 6,4 C 5,6 C 5,0 C 99 % 1028,3 hPa 0,0 l/m 0 min 2 min 33 W/m 19,3 km/h (3 Bft) 97,87 %
05.01.2019 15:08 6,4 C 5,6 C 5,0 C 99 % 1028,3 hPa 0,0 l/m 0 min 2 min 39 W/m 25,7 km/h (4 Bft) 95,74 %
05.01.2019 15:10 6,4 C 5,6 C 5,0 C 99 % 1028,3 hPa 0,0 l/m 0 min 2 min 49 W/m 25,7 km/h (4 Bft) 93,48 %
05.01.2019 15:12 6,4 C 5,6 C 5,6 C 99 % 1028,2 hPa 0,0 l/m 0 min 0 min 45 W/m 16,1 km/h (3 Bft) 95,74 %
05.01.2019 15:14 6,4 C 5,6 C 5,6 C 99 % 1028,2 hPa 0,0 l/m 0 min 0 min 39 W/m 16,1 km/h (3 Bft) 97,87 %
05.01.2019 15:16 6,4 C 5,6 C 5,0 C 99 % 1028,2 hPa 0,0 l/m 0 min 0 min 31 W/m 22,5 km/h (4 Bft) 97,87 %
05.01.2019 15:18 6,3 C 5,6 C 5,0 C 99 % 1028,3 hPa 0,0 l/m 0 min 0 min 30 W/m 16,1 km/h (3 Bft) 95,74 %
05.01.2019 15:20 6,3 C 5,6 C 5,0 C 99 % 1028,4 hPa 0,0 l/m 0 min 0 min 33 W/m 19,3 km/h (3 Bft) 97,87 %
05.01.2019 15:22 6,3 C 5,6 C 5,0 C 99 % 1028,3 hPa 0,0 l/m 0 min 0 min 31 W/m 19,3 km/h (3 Bft) 100,00 %
05.01.2019 15:24 6,3 C 5,6 C 5,0 C 99 % 1028,4 hPa 0,0 l/m 0 min 0 min 26 W/m 22,5 km/h (4 Bft) 95,74 %
05.01.2019 15:26 6,3 C 5,6 C 5,0 C 99 % 1028,3 hPa 0,0 l/m 0 min 0 min 23 W/m 22,5 km/h (4 Bft) 95,74 %
05.01.2019 15:28 6,3 C 5,6 C 5,0 C 99 % 1028,4 hPa 0,0 l/m 0 min 0 min 18 W/m 19,3 km/h (3 Bft) 97,87 %
05.01.2019 15:30 6,3 C 5,6 C 5,0 C 99 % 1028,4 hPa 0,0 l/m 0 min 0 min 18 W/m 16,1 km/h (3 Bft) 100,00 %
05.01.2019 15:32 6,3 C 5,6 C 5,0 C 99 % 1028,5 hPa 0,0 l/m 0 min 0 min 19 W/m 25,7 km/h (4 Bft) 97,87 %
05.01.2019 15:34 6,3 C 5,6 C 5,0 C 99 % 1028,4 hPa 0,0 l/m 0 min 0 min 21 W/m 16,1 km/h (3 Bft) 63,04 %
05.01.2019 15:36 6,3 C 5,6 C 5,0 C 99 % 1028,6 hPa 0,0 l/m 0 min 0 min 19 W/m 22,5 km/h (4 Bft) 85,71 %
05.01.2019 15:38 6,3 C 5,6 C 5,0 C 99 % 1028,5 hPa 0,0 l/m 0 min 0 min 14 W/m 35,4 km/h (5 Bft) 97,87 %
05.01.2019 15:40 6,3 C 5,6 C 5,0 C 99 % 1028,6 hPa 0,0 l/m 0 min 0 min 17 W/m 19,3 km/h (3 Bft) 95,74 %
05.01.2019 15:42 6,2 C 5,6 C 5,0 C 99 % 1028,7 hPa 0,0 l/m 0 min 0 min 19 W/m 16,1 km/h (3 Bft) 97,87 %
05.01.2019 15:44 6,2 C 5,6 C 5,0 C 99 % 1028,7 hPa 0,0 l/m 0 min 0 min 23 W/m 22,5 km/h (4 Bft) 97,87 %
05.01.2019 15:46 6,2 C 5,6 C 5,0 C 99 % 1028,7 hPa 0,0 l/m 0 min 0 min 20 W/m 22,5 km/h (4 Bft) 97,83 %
05.01.2019 15:48 6,2 C 5,6 C 5,0 C 99 % 1028,7 hPa 0,0 l/m 0 min 0 min 17 W/m 16,1 km/h (3 Bft) 97,87 %
05.01.2019 15:50 6,2 C 5,6 C 5,0 C 99 % 1028,7 hPa 0,0 l/m 0 min 0 min 16 W/m 16,1 km/h (3 Bft) 95,74 %
05.01.2019 15:52 6,2 C 5,6 C 5,0 C 99 % 1028,7 hPa 0,0 l/m 0 min 0 min 16 W/m 25,7 km/h (4 Bft) 95,74 %
05.01.2019 15:54 6,2 C 5,6 C 5,0 C 99 % 1028,7 hPa 0,0 l/m 0 min 0 min 17 W/m 16,1 km/h (3 Bft) 97,87 %
05.01.2019 15:56 6,2 C 5,6 C 5,0 C 99 % 1028,7 hPa 0,0 l/m 0 min 0 min 18 W/m 16,1 km/h (3 Bft) 97,87 %
05.01.2019 15:58 6,2 C 5,6 C 5,0 C 99 % 1028,7 hPa 0,0 l/m 0 min 0 min 16 W/m 16,1 km/h (3 Bft) 95,65 %
05.01.2019 16:00 6,2 C 5,6 C 5,0 C 99 % 1028,7 hPa 0,0 l/m 0 min 0 min 12 W/m 19,3 km/h (3 Bft) 97,87 %
05.01.2019 16:02 6,2 C 5,6 C 5,0 C 99 % 1028,8 hPa 0,0 l/m 0 min 0 min 11 W/m 22,5 km/h (4 Bft) 97,87 %
05.01.2019 16:04 6,2 C 5,6 C 5,0 C 99 % 1028,8 hPa 0,0 l/m 0 min 0 min 12 W/m 16,1 km/h (3 Bft) 97,87 %
05.01.2019 16:06 6,2 C 5,6 C 5,0 C 98 % 1028,8 hPa 0,0 l/m 0 min 0 min 11 W/m 19,3 km/h (3 Bft) 97,87 %
05.01.2019 16:08 6,2 C 5,6 C 5,0 C 98 % 1028,8 hPa 0,0 l/m 0 min 0 min 12 W/m 12,9 km/h (3 Bft) 97,87 %
05.01.2019 16:10 6,2 C 5,6 C 5,0 C 98 % 1028,8 hPa 0,0 l/m 0 min 0 min 11 W/m 25,7 km/h (4 Bft) 97,83 %
05.01.2019 16:12 6,2 C 5,6 C 5,0 C 98 % 1028,9 hPa 0,0 l/m 0 min 0 min 9 W/m 29,0 km/h (5 Bft) 97,87 %
05.01.2019 16:14 6,2 C 5,6 C 5,0 C 98 % 1028,8 hPa 0,0 l/m 0 min 0 min 9 W/m 19,3 km/h (3 Bft) 97,87 %
05.01.2019 16:16 6,2 C 5,6 C 5,0 C 98 % 1028,8 hPa 0,0 l/m 0 min 0 min 9 W/m 16,1 km/h (3 Bft) 93,62 %
05.01.2019 16:18 6,2 C 5,6 C 5,0 C 98 % 1028,8 hPa 0,0 l/m 0 min 0 min 7 W/m 12,9 km/h (3 Bft) 95,74 %
05.01.2019 16:20 6,2 C 5,6 C 5,0 C 98 % 1028,8 hPa 0,0 l/m 0 min 0 min 5 W/m 12,9 km/h (3 Bft) 95,74 %
05.01.2019 16:22 6,2 C 5,6 C 5,0 C 98 % 1028,8 hPa 0,0 l/m 0 min 0 min 5 W/m 12,9 km/h (3 Bft) 97,83 %
05.01.2019 16:24 6,1 C 5,6 C 5,0 C 98 % 1028,8 hPa 0,0 l/m 0 min 0 min 5 W/m 16,1 km/h (3 Bft) 97,87 %
05.01.2019 16:26 6,2 C 5,6 C 5,0 C 98 % 1028,8 hPa 0,0 l/m 0 min 0 min 5 W/m 12,9 km/h (3 Bft) 97,87 %
05.01.2019 16:28 6,1 C 5,6 C 5,0 C 98 % 1028,6 hPa 0,0 l/m 0 min 0 min 4 W/m 16,1 km/h (3 Bft) 100,00 %
05.01.2019 16:30 6,1 C 5,6 C 5,0 C 98 % 1028,8 hPa 0,0 l/m 0 min 0 min 0 W/m 19,3 km/h (3 Bft) 100,00 %
05.01.2019 16:32 6,1 C 5,6 C 5,0 C 98 % 1028,8 hPa 0,0 l/m 0 min 0 min 0 W/m 12,9 km/h (3 Bft) 95,65 %
05.01.2019 16:34 6,1 C 5,6 C 5,0 C 98 % 1028,7 hPa 0,0 l/m 0 min 0 min 0 W/m 12,9 km/h (3 Bft) 100,00 %
05.01.2019 16:36 6,1 C 5,6 C 5,0 C 98 % 1028,8 hPa 0,0 l/m 0 min 0 min 0 W/m 19,3 km/h (3 Bft) 100,00 %
05.01.2019 16:38 6,1 C 5,6 C 5,0 C 98 % 1028,7 hPa 0,0 l/m 0 min 0 min 0 W/m 16,1 km/h (3 Bft) 100,00 %
05.01.2019 16:40 6,1 C 5,6 C 5,0 C 98 % 1028,8 hPa 0,0 l/m 0 min 0 min 0 W/m 16,1 km/h (3 Bft) 97,87 %
05.01.2019 16:42 6,1 C 5,6 C 5,0 C 98 % 1028,8 hPa 0,0 l/m 0 min 0 min 0 W/m 29,0 km/h (5 Bft) 97,87 %
05.01.2019 16:44 6,1 C 5,0 C 5,0 C 98 % 1028,6 hPa 0,0 l/m 0 min 0 min 0 W/m 16,1 km/h (3 Bft) 95,65 %
05.01.2019 16:46 6,1 C 5,0 C 5,0 C 98 % 1028,6 hPa 0,0 l/m 0 min 2 min 0 W/m 22,5 km/h (4 Bft) 97,87 %
05.01.2019 16:48 6,1 C 5,0 C 5,0 C 98 % 1028,7 hPa 0,0 l/m 0 min 2 min 0 W/m 16,1 km/h (3 Bft) 97,87 %
05.01.2019 16:50 6,1 C 5,0 C 4,4 C 98 % 1028,7 hPa 0,0 l/m 0 min 2 min 0 W/m 22,5 km/h (4 Bft) 97,87 %
05.01.2019 16:52 6,1 C 5,0 C 4,4 C 98 % 1028,6 hPa 0,0 l/m 0 min 0 min 0 W/m 22,5 km/h (4 Bft) 97,87 %
05.01.2019 16:54 6,0 C 5,0 C 4,4 C 98 % 1028,7 hPa 0,0 l/m 0 min 2 min 0 W/m 12,9 km/h (3 Bft) 97,87 %
05.01.2019 16:56 6,0 C 5,0 C 4,4 C 98 % 1028,8 hPa 0,0 l/m 0 min 0 min 0 W/m 19,3 km/h (3 Bft) 97,83 %
05.01.2019 16:58 6,0 C 5,0 C 4,4 C 98 % 1028,8 hPa 0,0 l/m 0 min 0 min 0 W/m 12,9 km/h (3 Bft) 97,87 %
05.01.2019 17:00 6,0 C 5,0 C 4,4 C 98 % 1028,8 hPa 0,0 l/m 0 min 2 min 0 W/m 19,3 km/h (3 Bft) 95,74 %
05.01.2019 17:02 6,0 C 5,0 C 4,4 C 98 % 1028,7 hPa 0,0 l/m 0 min 2 min 0 W/m 19,3 km/h (3 Bft) 97,87 %
05.01.2019 17:04 6,1 C 5,0 C 4,4 C 98 % 1028,8 hPa 0,0 l/m 0 min 2 min 0 W/m 16,1 km/h (3 Bft) 97,87 %
05.01.2019 17:06 6,0 C 5,0 C 4,4 C 98 % 1028,9 hPa 0,0 l/m 0 min 2 min 0 W/m 12,9 km/h (3 Bft) 93,62 %
05.01.2019 17:08 6,0 C 5,0 C 4,4 C 98 % 1028,9 hPa 0,0 l/m 0 min 2 min 0 W/m 16,1 km/h (3 Bft) 91,30 %
05.01.2019 17:10 6,0 C 5,0 C 4,4 C 98 % 1028,9 hPa 0,0 l/m 0 min 2 min 0 W/m 19,3 km/h (3 Bft) 93,62 %
05.01.2019 17:12 6,0 C 5,0 C 4,4 C 98 % 1029,0 hPa 0,0 l/m 0 min 2 min 0 W/m 25,7 km/h (4 Bft) 93,62 %
05.01.2019 17:14 5,9 C 5,0 C 4,4 C 98 % 1028,9 hPa 0,0 l/m 0 min 2 min 0 W/m 16,1 km/h (3 Bft) 95,74 %
05.01.2019 17:16 5,9 C 5,0 C 4,4 C 98 % 1029,0 hPa 0,0 l/m 0 min 2 min 0 W/m 19,3 km/h (3 Bft) 93,62 %
05.01.2019 17:18 5,9 C 5,0 C 4,4 C 98 % 1028,9 hPa 0,0 l/m 0 min 2 min 0 W/m 19,3 km/h (3 Bft) 95,74 %
05.01.2019 17:20 5,9 C 5,0 C 4,4 C 98 % 1028,9 hPa 0,0 l/m 0 min 2 min 0 W/m 16,1 km/h (3 Bft) 95,65 %
05.01.2019 17:22 5,9 C 5,0 C 4,4 C 98 % 1029,0 hPa 0,0 l/m 0 min 0 min 0 W/m 16,1 km/h (3 Bft) 95,74 %
05.01.2019 17:24 5,9 C 5,0 C 4,4 C 98 % 1029,0 hPa 0,0 l/m 0 min 2 min 0 W/m 19,3 km/h (3 Bft) 95,74 %
05.01.2019 17:26 5,9 C 5,0 C 4,4 C 98 % 1029,1 hPa 0,0 l/m 0 min 0 min 0 W/m 25,7 km/h (4 Bft) 93,62 %
05.01.2019 17:28 5,9 C 5,0 C 4,4 C 98 % 1029,1 hPa 0,0 l/m 0 min 0 min 0 W/m 22,5 km/h (4 Bft) 91,49 %
05.01.2019 17:30 5,9 C 5,0 C 4,4 C 98 % 1029,0 hPa 0,0 l/m 0 min 2 min 0 W/m 9,7 km/h (2 Bft) 93,62 %
05.01.2019 17:32 5,9 C 5,0 C 4,4 C 98 % 1029,0 hPa 0,0 l/m 0 min 0 min 0 W/m 19,3 km/h (3 Bft) 95,65 %
05.01.2019 17:34 5,9 C 5,0 C 4,4 C 98 % 1029,0 hPa 0,0 l/m 0 min 0 min 0 W/m 25,7 km/h (4 Bft) 93,62 %
05.01.2019 17:36 5,9 C 5,0 C 4,4 C 98 % 1029,1 hPa 0,0 l/m 0 min 0 min 0 W/m 22,5 km/h (4 Bft) 95,74 %
05.01.2019 17:38 5,9 C 5,0 C 4,4 C 98 % 1029,1 hPa 0,0 l/m 0 min 0 min 0 W/m 19,3 km/h (3 Bft) 97,87 %
05.01.2019 17:40 5,9 C 5,0 C 4,4 C 98 % 1029,0 hPa 0,0 l/m 0 min 0 min 0 W/m 19,3 km/h (3 Bft) 95,74 %
05.01.2019 17:42 5,9 C 5,0 C 4,4 C 98 % 1029,0 hPa 0,0 l/m 0 min 0 min 0 W/m 16,1 km/h (3 Bft) 97,83 %
05.01.2019 17:44 5,8 C 5,0 C 4,4 C 98 % 1029,0 hPa 0,0 l/m 0 min 0 min 0 W/m 12,9 km/h (3 Bft) 97,87 %
05.01.2019 17:46 5,9 C 5,0 C 4,4 C 98 % 1029,0 hPa 0,0 l/m 0 min 0 min 0 W/m 22,5 km/h (4 Bft) 97,87 %
05.01.2019 17:48 5,8 C 5,0 C 4,4 C 98 % 1028,9 hPa 0,0 l/m 0 min 0 min 0 W/m 16,1 km/h (3 Bft) 100,00 %
05.01.2019 17:50 5,8 C 5,0 C 4,4 C 98 % 1029,0 hPa 0,0 l/m 0 min 2 min 0 W/m 16,1 km/h (3 Bft) 97,87 %
05.01.2019 17:52 5,8 C 5,0 C 4,4 C 98 % 1029,0 hPa 0,0 l/m 0 min 2 min 0 W/m 12,9 km/h (3 Bft) 97,87 %
05.01.2019 17:54 5,8 C 5,0 C 4,4 C 98 % 1029,1 hPa 0,0 l/m 0 min 2 min 0 W/m 16,1 km/h (3 Bft) 100,00 %
05.01.2019 17:56 5,8 C 5,0 C 4,4 C 98 % 1029,0 hPa 0,0 l/m 0 min 2 min 0 W/m 12,9 km/h (3 Bft) 100,00 %
05.01.2019 17:58 5,8 C 5,0 C 4,4 C 98 % 1029,0 hPa 0,0 l/m 0 min 2 min 0 W/m 22,5 km/h (4 Bft) 100,00 %
05.01.2019 18:00 5,8 C 5,0 C 4,4 C 98 % 1029,0 hPa 0,0 l/m 0 min 2 min 0 W/m 25,7 km/h (4 Bft) 97,87 %
05.01.2019 18:02 5,8 C 5,0 C 4,4 C 98 % 1029,0 hPa 0,0 l/m 0 min 2 min 0 W/m 16,1 km/h (3 Bft) 100,00 %
05.01.2019 18:04 5,8 C 5,0 C 4,4 C 98 % 1028,9 hPa 0,0 l/m 0 min 2 min 0 W/m 19,3 km/h (3 Bft) 100,00 %
05.01.2019 18:08 5,8 C 5,0 C 4,4 C 98 % 1029,0 hPa 0,0 l/m 0 min 4 min 0 W/m 22,5 km/h (4 Bft) 100,00 %
05.01.2019 18:10 5,8 C 5,0 C 4,4 C 98 % 1029,1 hPa 0,2 l/m 0 min 2 min 0 W/m 12,9 km/h (3 Bft) 93,62 %
05.01.2019 18:12 5,8 C 5,0 C 4,4 C 98 % 1029,0 hPa 0,0 l/m 0 min 2 min 0 W/m 19,3 km/h (3 Bft) 91,49 %
05.01.2019 18:14 5,8 C 5,0 C 4,4 C 98 % 1029,0 hPa 0,0 l/m 0 min 2 min 0 W/m 16,1 km/h (3 Bft) 97,87 %
05.01.2019 18:16 5,8 C 5,0 C 4,4 C 98 % 1029,0 hPa 0,0 l/m 0 min 2 min 0 W/m 22,5 km/h (4 Bft) 91,49 %
05.01.2019 18:18 5,8 C 5,0 C 4,4 C 98 % 1029,1 hPa 0,0 l/m 0 min 0 min 0 W/m 16,1 km/h (3 Bft) 97,83 %
05.01.2019 18:20 5,8 C 5,0 C 4,4 C 98 % 1029,1 hPa 0,0 l/m 0 min 0 min 0 W/m 22,5 km/h (4 Bft) 95,74 %
05.01.2019 18:22 5,8 C 5,0 C 4,4 C 98 % 1029,1 hPa 0,0 l/m 0 min 0 min 0 W/m 19,3 km/h (3 Bft) 95,74 %
05.01.2019 18:24 5,8 C 5,0 C 4,4 C 98 % 1029,1 hPa 0,0 l/m 0 min 0 min 0 W/m 16,1 km/h (3 Bft) 100,00 %
05.01.2019 18:26 5,8 C 5,0 C 4,4 C 98 % 1029,1 hPa 0,0 l/m 0 min 0 min 0 W/m 16,1 km/h (3 Bft) 100,00 %
05.01.2019 18:28 5,8 C 5,0 C 4,4 C 98 % 1029,0 hPa 0,0 l/m 0 min 2 min 0 W/m 16,1 km/h (3 Bft) 97,87 %
05.01.2019 18:30 5,8 C 5,0 C 4,4 C 98 % 1029,1 hPa 0,0 l/m 0 min 0 min 0 W/m 25,7 km/h (4 Bft) 97,83 %
05.01.2019 18:32 5,8 C 5,0 C 4,4 C 98 % 1029,1 hPa 0,0 l/m 0 min 0 min 0 W/m 25,7 km/h (4 Bft) 93,62 %
05.01.2019 18:34 5,8 C 5,0 C 4,4 C 98 % 1029,2 hPa 0,0 l/m 0 min 0 min 0 W/m 12,9 km/h (3 Bft) 97,87 %
05.01.2019 18:36 5,7 C 5,0 C 4,4 C 98 % 1029,2 hPa 0,0 l/m 0 min 0 min 0 W/m 22,5 km/h (4 Bft) 97,87 %
05.01.2019 18:38 5,7 C 5,0 C 4,4 C 98 % 1029,1 hPa 0,0 l/m 0 min 0 min 0 W/m 19,3 km/h (3 Bft) 97,87 %
05.01.2019 18:40 5,7 C 5,0 C 4,4 C 98 % 1029,2 hPa 0,0 l/m 0 min 0 min 0 W/m 16,1 km/h (3 Bft) 97,87 %
05.01.2019 18:42 5,7 C 5,0 C 4,4 C 98 % 1029,0 hPa 0,0 l/m 0 min 0 min 0 W/m 19,3 km/h (3 Bft) 97,83 %
05.01.2019 18:44 5,7 C 5,0 C 4,4 C 98 % 1029,0 hPa 0,0 l/m 0 min 0 min 0 W/m 22,5 km/h (4 Bft) 93,62 %
05.01.2019 18:46 5,7 C 5,0 C 4,4 C 98 % 1029,1 hPa 0,0 l/m 0 min 0 min 0 W/m 19,3 km/h (3 Bft) 95,74 %
05.01.2019 18:48 5,7 C 5,0 C 4,4 C 98 % 1029,0 hPa 0,0 l/m 0 min 0 min 0 W/m 12,9 km/h (3 Bft) 97,87 %
05.01.2019 18:50 5,7 C 5,0 C 4,4 C 98 % 1029,0 hPa 0,0 l/m 0 min 0 min 0 W/m 12,9 km/h (3 Bft) 97,87 %
05.01.2019 18:52 5,7 C 5,0 C 4,4 C 98 % 1029,0 hPa 0,0 l/m 0 min 0 min 0 W/m 12,9 km/h (3 Bft) 97,83 %
05.01.2019 18:54 5,7 C 5,0 C 4,4 C 98 % 1029,0 hPa 0,0 l/m 0 min 0 min 0 W/m 12,9 km/h (3 Bft) 97,87 %
05.01.2019 18:56 5,7 C 5,0 C 4,4 C 98 % 1029,0 hPa 0,0 l/m 0 min 0 min 0 W/m 9,7 km/h (2 Bft) 95,74 %
05.01.2019 18:58 5,7 C 5,0 C 4,4 C 98 % 1029,0 hPa 0,0 l/m 0 min 0 min 0 W/m 12,9 km/h (3 Bft) 95,74 %
05.01.2019 19:00 5,7 C 5,0 C 4,4 C 98 % 1029,0 hPa 0,0 l/m 0 min 0 min 0 W/m 16,1 km/h (3 Bft) 97,87 %
05.01.2019 19:02 5,7 C 5,0 C 4,4 C 98 % 1028,9 hPa 0,0 l/m 0 min 0 min 0 W/m 16,1 km/h (3 Bft) 97,87 %
05.01.2019 19:04 5,7 C 5,0 C 4,4 C 98 % 1029,0 hPa 0,0 l/m 0 min 0 min 0 W/m 16,1 km/h (3 Bft) 95,74 %
05.01.2019 19:06 5,7 C 5,0 C 4,4 C 98 % 1029,0 hPa 0,0 l/m 0 min 0 min 0 W/m 22,5 km/h (4 Bft) 97,83 %
05.01.2019 19:08 5,7 C 5,0 C 4,4 C 98 % 1028,9 hPa 0,0 l/m 0 min 0 min 0 W/m 16,1 km/h (3 Bft) 97,87 %
05.01.2019 19:10 5,6 C 5,0 C 4,4 C 98 % 1028,9 hPa 0,0 l/m 0 min 0 min 0 W/m 16,1 km/h (3 Bft) 97,87 %
05.01.2019 19:12 5,6 C 5,0 C 4,4 C 98 % 1029,0 hPa 0,0 l/m 0 min 0 min 0 W/m 19,3 km/h (3 Bft) 93,62 %
05.01.2019 19:14 5,6 C 5,0 C 4,4 C 98 % 1028,9 hPa 0,0 l/m 0 min 0 min 0 W/m 19,3 km/h (3 Bft) 95,74 %
05.01.2019 19:16 5,6 C 5,0 C 4,4 C 98 % 1028,9 hPa 0,0 l/m 0 min 0 min 0 W/m 19,3 km/h (3 Bft) 93,48 %
05.01.2019 19:18 5,6 C 5,0 C 4,4 C 98 % 1029,0 hPa 0,0 l/m 0 min 0 min 0 W/m 16,1 km/h (3 Bft) 93,62 %
05.01.2019 19:20 5,6 C 5,0 C 4,4 C 98 % 1029,0 hPa 0,0 l/m 0 min 0 min 0 W/m 19,3 km/h (3 Bft) 97,87 %
05.01.2019 19:22 5,6 C 5,0 C 4,4 C 98 % 1029,0 hPa 0,0 l/m 0 min 0 min 0 W/m 16,1 km/h (3 Bft) 100,00 %
05.01.2019 19:24 5,6 C 5,0 C 4,4 C 98 % 1028,9 hPa 0,0 l/m 0 min 0 min 0 W/m 16,1 km/h (3 Bft) 100,00 %
05.01.2019 19:26 5,6 C 5,0 C 4,4 C 98 % 1028,9 hPa 0,0 l/m 0 min 0 min 0 W/m 19,3 km/h (3 Bft) 100,00 %
05.01.2019 19:28 5,6 C 5,0 C 4,4 C 98 % 1029,0 hPa 0,0 l/m 0 min 0 min 0 W/m 25,7 km/h (4 Bft) 97,83 %
05.01.2019 19:30 5,6 C 5,0 C 4,4 C 98 % 1029,0 hPa 0,0 l/m 0 min 0 min 0 W/m 12,9 km/h (3 Bft) 97,87 %
05.01.2019 19:32 5,6 C 5,0 C 4,4 C 98 % 1029,0 hPa 0,0 l/m 0 min 0 min 0 W/m 19,3 km/h (3 Bft) 97,87 %
05.01.2019 19:34 5,6 C 5,0 C 4,4 C 98 % 1029,0 hPa 0,0 l/m 0 min 0 min 0 W/m 19,3 km/h (3 Bft) 100,00 %
05.01.2019 19:36 5,6 C 5,0 C 4,4 C 98 % 1029,0 hPa 0,0 l/m 0 min 0 min 0 W/m 9,7 km/h (2 Bft) 93,62 %
05.01.2019 19:38 5,6 C 5,0 C 4,4 C 98 % 1029,0 hPa 0,0 l/m 0 min 0 min 0 W/m 29,0 km/h (5 Bft) 97,87 %
05.01.2019 19:40 5,6 C 5,0 C 4,4 C 98 % 1029,0 hPa 0,0 l/m 0 min 0 min 0 W/m 16,1 km/h (3 Bft) 97,83 %
05.01.2019 19:42 5,6 C 5,0 C 4,4 C 98 % 1029,0 hPa 0,0 l/m 0 min 0 min 0 W/m 16,1 km/h (3 Bft) 97,87 %
05.01.2019 19:44 5,6 C 5,0 C 4,4 C 98 % 1029,0 hPa 0,0 l/m 0 min 0 min 0 W/m 12,9 km/h (3 Bft) 91,49 %
05.01.2019 19:46 5,6 C 5,0 C 4,4 C 98 % 1029,1 hPa 0,0 l/m 0 min 0 min 0 W/m 19,3 km/h (3 Bft) 97,87 %
05.01.2019 19:48 5,6 C 5,0 C 4,4 C 98 % 1029,0 hPa 0,0 l/m 0 min 0 min 0 W/m 16,1 km/h (3 Bft) 97,87 %
05.01.2019 19:50 5,6 C 5,0 C 4,4 C 98 % 1029,0 hPa 0,0 l/m 0 min 0 min 0 W/m 16,1 km/h (3 Bft) 97,87 %
05.01.2019 19:52 5,6 C 5,0 C 4,4 C 98 % 1029,0 hPa 0,0 l/m 0 min 0 min 0 W/m 22,5 km/h (4 Bft) 95,65 %
05.01.2019 19:54 5,6 C 5,0 C 4,4 C 98 % 1028,9 hPa 0,0 l/m 0 min 0 min 0 W/m 16,1 km/h (3 Bft) 95,74 %
05.01.2019 19:56 5,6 C 5,0 C 4,4 C 98 % 1028,9 hPa 0,0 l/m 0 min 0 min 0 W/m 16,1 km/h (3 Bft) 95,74 %
05.01.2019 19:58 5,6 C 5,0 C 4,4 C 98 % 1029,0 hPa 0,0 l/m 0 min 0 min 0 W/m 16,1 km/h (3 Bft) 95,74 %
05.01.2019 20:00 5,6 C 5,0 C 4,4 C 98 % 1028,9 hPa 0,0 l/m 0 min 0 min 0 W/m 12,9 km/h (3 Bft) 95,74 %
05.01.2019 20:02 5,6 C 5,0 C 4,4 C 98 % 1028,9 hPa 0,0 l/m 0 min 0 min 0 W/m 22,5 km/h (4 Bft) 95,65 %
05.01.2019 20:04 5,6 C 5,0 C 4,4 C 98 % 1029,0 hPa 0,0 l/m 0 min 0 min 0 W/m 22,5 km/h (4 Bft) 95,74 %
05.01.2019 20:06 5,5 C 5,0 C 4,4 C 98 % 1029,0 hPa 0,0 l/m 0 min 0 min 0 W/m 12,9 km/h (3 Bft) 95,74 %
05.01.2019 20:08 5,6 C 5,0 C 4,4 C 98 % 1028,9 hPa 0,0 l/m 0 min 0 min 0 W/m 19,3 km/h (3 Bft) 93,62 %
05.01.2019 20:10 5,6 C 5,0 C 4,4 C 98 % 1029,0 hPa 0,0 l/m 0 min 0 min 0 W/m 16,1 km/h (3 Bft) 94,29 %
05.01.2019 20:12 5,6 C 5,0 C 4,4 C 98 % 1029,0 hPa 0,0 l/m 0 min 0 min 0 W/m 12,9 km/h (3 Bft) 95,74 %
05.01.2019 20:14 5,5 C 5,0 C 4,4 C 98 % 1029,0 hPa 0,0 l/m 0 min 0 min 0 W/m 16,1 km/h (3 Bft) 95,74 %
05.01.2019 20:16 5,6 C 5,0 C 4,4 C 98 % 1029,0 hPa 0,0 l/m 0 min 0 min 0 W/m 9,7 km/h (2 Bft) 93,62 %
05.01.2019 20:18 5,6 C 5,0 C 4,4 C 98 % 1028,9 hPa 0,0 l/m 0 min 0 min 0 W/m 12,9 km/h (3 Bft) 97,83 %
05.01.2019 20:20 5,6 C 5,0 C 4,4 C 98 % 1029,0 hPa 0,0 l/m 0 min 0 min 0 W/m 9,7 km/h (2 Bft) 95,74 %
05.01.2019 20:22 5,6 C 5,0 C 4,4 C 98 % 1028,9 hPa 0,0 l/m 0 min 0 min 0 W/m 19,3 km/h (3 Bft) 95,74 %
05.01.2019 20:24 5,6 C 5,0 C 4,4 C 98 % 1029,0 hPa 0,0 l/m 0 min 0 min 0 W/m 12,9 km/h (3 Bft) 93,62 %
05.01.2019 20:26 5,6 C 5,0 C 4,4 C 98 % 1029,0 hPa 0,0 l/m 0 min 0 min 0 W/m 16,1 km/h (3 Bft) 97,87 %
05.01.2019 20:28 5,6 C 5,0 C 4,4 C 98 % 1029,0 hPa 0,0 l/m 0 min 0 min 0 W/m 16,1 km/h (3 Bft) 97,87 %
05.01.2019 20:30 5,6 C 5,0 C 4,4 C 98 % 1029,0 hPa 0,0 l/m 0 min 0 min 0 W/m 12,9 km/h (3 Bft) 97,83 %
05.01.2019 20:32 5,6 C 5,0 C 4,4 C 98 % 1029,0 hPa 0,0 l/m 0 min 0 min 0 W/m 16,1 km/h (3 Bft) 95,74 %
05.01.2019 20:34 5,6 C 5,0 C 4,4 C 98 % 1029,1 hPa 0,2 l/m 0 min 0 min 0 W/m 16,1 km/h (3 Bft) 97,87 %
05.01.2019 20:36 5,6 C 5,0 C 4,4 C 98 % 1029,1 hPa 0,0 l/m 0 min 0 min 0 W/m 9,7 km/h (2 Bft) 98,31 %
05.01.2019 20:38 5,6 C 5,0 C 4,4 C 98 % 1029,1 hPa 0,0 l/m 0 min 0 min 0 W/m 9,7 km/h (2 Bft) 97,83 %
05.01.2019 20:40 5,6 C 5,0 C 4,4 C 98 % 1029,1 hPa 0,0 l/m 0 min 0 min 0 W/m 12,9 km/h (3 Bft) 97,22 %
05.01.2019 20:42 5,6 C 5,0 C 4,4 C 98 % 1029,0 hPa 0,0 l/m 0 min 0 min 0 W/m 16,1 km/h (3 Bft) 97,83 %
05.01.2019 20:44 5,6 C 5,0 C 4,4 C 98 % 1029,1 hPa 0,0 l/m 0 min 0 min 0 W/m 12,9 km/h (3 Bft) 97,87 %
05.01.2019 20:46 5,6 C 5,0 C 4,4 C 98 % 1029,2 hPa 0,0 l/m 0 min 0 min 0 W/m 12,9 km/h (3 Bft) 97,87 %
05.01.2019 20:48 5,6 C 5,0 C 4,4 C 98 % 1029,2 hPa 0,0 l/m 0 min 0 min 0 W/m 12,9 km/h (3 Bft) 97,87 %
05.01.2019 20:50 5,6 C 5,0 C 4,4 C 98 % 1029,2 hPa 0,0 l/m 0 min 0 min 0 W/m 16,1 km/h (3 Bft) 97,87 %
05.01.2019 20:52 5,6 C 5,0 C 4,4 C 98 % 1029,2 hPa 0,0 l/m 0 min 0 min 0 W/m 16,1 km/h (3 Bft) 97,87 %
05.01.2019 20:54 5,6 C 5,0 C 4,4 C 98 % 1029,3 hPa 0,0 l/m 0 min 0 min 0 W/m 16,1 km/h (3 Bft) 100,00 %
05.01.2019 20:56 5,6 C 5,0 C 4,4 C 98 % 1029,3 hPa 0,0 l/m 0 min 0 min 0 W/m 12,9 km/h (3 Bft) 100,00 %
05.01.2019 20:58 5,6 C 5,0 C 4,4 C 98 % 1029,3 hPa 0,0 l/m 0 min 0 min 0 W/m 9,7 km/h (2 Bft) 97,87 %
05.01.2019 21:00 5,6 C 5,0 C 4,4 C 98 % 1029,4 hPa 0,0 l/m 0 min 0 min 0 W/m 16,1 km/h (3 Bft) 97,87 %
05.01.2019 21:02 5,6 C 5,0 C 4,4 C 98 % 1029,4 hPa 0,0 l/m 0 min 0 min 0 W/m 16,1 km/h (3 Bft) 97,87 %
05.01.2019 21:04 5,6 C 5,0 C 4,4 C 98 % 1029,4 hPa 0,0 l/m 0 min 0 min 0 W/m 16,1 km/h (3 Bft) 100,00 %
05.01.2019 21:06 5,6 C 5,0 C 4,4 C 98 % 1029,4 hPa 0,0 l/m 0 min 0 min 0 W/m 16,1 km/h (3 Bft) 100,00 %
05.01.2019 21:08 5,6 C 5,0 C 4,4 C 98 % 1029,3 hPa 0,0 l/m 0 min 0 min 0 W/m 22,5 km/h (4 Bft) 95,24 %
05.01.2019 21:10 5,6 C 5,0 C 4,4 C 98 % 1029,1 hPa 0,0 l/m 0 min 0 min 0 W/m 16,1 km/h (3 Bft) 97,83 %
05.01.2019 21:12 5,6 C 5,0 C 4,4 C 98 % 1029,3 hPa 0,0 l/m 0 min 0 min 0 W/m 16,1 km/h (3 Bft) 100,00 %
05.01.2019 21:14 5,6 C 5,0 C 4,4 C 98 % 1029,3 hPa 0,0 l/m 0 min 0 min 0 W/m 25,7 km/h (4 Bft) 97,87 %
05.01.2019 21:16 5,6 C 5,0 C 4,4 C 98 % 1029,3 hPa 0,0 l/m 0 min 0 min 0 W/m 16,1 km/h (3 Bft) 97,87 %
05.01.2019 21:18 5,6 C 5,0 C 4,4 C 98 % 1029,2 hPa 0,0 l/m 0 min 0 min 0 W/m 16,1 km/h (3 Bft) 97,87 %
05.01.2019 21:20 5,6 C 5,0 C 4,4 C 98 % 1029,2 hPa 0,0 l/m 0 min 0 min 0 W/m 16,1 km/h (3 Bft) 95,74 %
05.01.2019 21:22 5,6 C 5,0 C 4,4 C 98 % 1029,2 hPa 0,0 l/m 0 min 0 min 0 W/m 22,5 km/h (4 Bft) 100,00 %
05.01.2019 21:24 5,6 C 5,0 C 4,4 C 98 % 1029,3 hPa 0,0 l/m 0 min 0 min 0 W/m 9,7 km/h (2 Bft) 100,00 %
05.01.2019 21:26 5,6 C 5,0 C 4,4 C 98 % 1029,3 hPa 0,0 l/m 0 min 0 min 0 W/m 9,7 km/h (2 Bft) 97,87 %
05.01.2019 21:28 5,6 C 5,0 C 4,4 C 98 % 1029,3 hPa 0,0 l/m 0 min 0 min 0 W/m 16,1 km/h (3 Bft) 95,74 %
05.01.2019 21:30 5,6 C 5,0 C 4,4 C 98 % 1029,3 hPa 0,0 l/m 0 min 0 min 0 W/m 19,3 km/h (3 Bft) 100,00 %
05.01.2019 21:32 5,6 C 5,0 C 4,4 C 98 % 1029,3 hPa 0,0 l/m 0 min 0 min 0 W/m 16,1 km/h (3 Bft) 97,87 %
05.01.2019 21:34 5,6 C 5,0 C 4,4 C 98 % 1029,2 hPa 0,0 l/m 0 min 0 min 0 W/m 12,9 km/h (3 Bft) 95,65 %
05.01.2019 21:36 5,6 C 5,0 C 4,4 C 98 % 1029,3 hPa 0,0 l/m 0 min 0 min 0 W/m 16,1 km/h (3 Bft) 98,31 %
05.01.2019 21:38 5,6 C 5,0 C 4,4 C 98 % 1029,3 hPa 0,0 l/m 0 min 0 min 0 W/m 16,1 km/h (3 Bft) 97,14 %
05.01.2019 21:40 5,6 C 5,0 C 4,4 C 98 % 1029,3 hPa 0,0 l/m 0 min 0 min 0 W/m 16,1 km/h (3 Bft) 97,87 %
05.01.2019 21:42 5,5 C 5,0 C 4,4 C 98 % 1029,4 hPa 0,0 l/m 0 min 0 min 0 W/m 12,9 km/h (3 Bft) 97,87 %
05.01.2019 21:44 5,5 C 5,0 C 4,4 C 98 % 1029,4 hPa 0,0 l/m 0 min 0 min 0 W/m 12,9 km/h (3 Bft) 97,87 %
05.01.2019 21:46 5,5 C 5,0 C 4,4 C 98 % 1029,3 hPa 0,0 l/m 0 min 0 min 0 W/m 12,9 km/h (3 Bft) 97,83 %
05.01.2019 21:48 5,5 C 5,0 C 4,4 C 98 % 1029,4 hPa 0,0 l/m 0 min 0 min 0 W/m 19,3 km/h (3 Bft) 95,74 %
05.01.2019 21:50 5,5 C 5,0 C 4,4 C 98 % 1029,5 hPa 0,0 l/m 0 min 0 min 0 W/m 19,3 km/h (3 Bft) 97,87 %
05.01.2019 21:52 5,5 C 5,0 C 4,4 C 98 % 1029,5 hPa 0,0 l/m 0 min 0 min 0 W/m 9,7 km/h (2 Bft) 95,74 %
05.01.2019 21:54 5,5 C 5,0 C 4,4 C 98 % 1029,5 hPa 0,0 l/m 0 min 0 min 0 W/m 16,1 km/h (3 Bft) 97,87 %
05.01.2019 21:56 5,5 C 5,0 C 4,4 C 98 % 1029,5 hPa 0,0 l/m 0 min 0 min 0 W/m 16,1 km/h (3 Bft) 97,83 %
05.01.2019 21:58 5,5 C 5,0 C 4,4 C 98 % 1029,5 hPa 0,0 l/m 0 min 0 min 0 W/m 16,1 km/h (3 Bft) 97,87 %
05.01.2019 22:00 5,5 C 5,0 C 4,4 C 98 % 1029,5 hPa 0,0 l/m 0 min 0 min 0 W/m 9,7 km/h (2 Bft) 97,87 %
05.01.2019 22:02 5,5 C 5,0 C 4,4 C 98 % 1029,5 hPa 0,0 l/m 0 min 0 min 0 W/m 16,1 km/h (3 Bft) 97,87 %
05.01.2019 22:04 5,5 C 5,0 C 4,4 C 98 % 1029,5 hPa 0,0 l/m 0 min 0 min 0 W/m 16,1 km/h (3 Bft) 95,74 %
05.01.2019 22:06 5,5 C 5,0 C 4,4 C 98 % 1029,5 hPa 0,0 l/m 0 min 0 min 0 W/m 12,9 km/h (3 Bft) 98,28 %
05.01.2019 22:08 5,5 C 5,0 C 4,4 C 98 % 1029,4 hPa 0,0 l/m 0 min 0 min 0 W/m 16,1 km/h (3 Bft) 94,29 %
05.01.2019 22:10 5,5 C 5,0 C 4,4 C 98 % 1029,4 hPa 0,0 l/m 0 min 0 min 0 W/m 25,7 km/h (4 Bft) 95,74 %
05.01.2019 22:12 5,5 C 5,0 C 4,4 C 98 % 1029,6 hPa 0,0 l/m 0 min 0 min 0 W/m 16,1 km/h (3 Bft) 93,62 %
05.01.2019 22:14 5,5 C 5,0 C 4,4 C 98 % 1029,6 hPa 0,0 l/m 0 min 0 min 0 W/m 16,1 km/h (3 Bft) 93,62 %
05.01.2019 22:16 5,5 C 5,0 C 4,4 C 98 % 1029,5 hPa 0,0 l/m 0 min 0 min 0 W/m 9,7 km/h (2 Bft) 95,74 %
05.01.2019 22:18 5,5 C 5,0 C 4,4 C 98 % 1029,5 hPa 0,0 l/m 0 min 0 min 0 W/m 12,9 km/h (3 Bft) 95,74 %
05.01.2019 22:20 5,5 C 5,0 C 4,4 C 98 % 1029,5 hPa 0,0 l/m 0 min 0 min 0 W/m 12,9 km/h (3 Bft) 95,65 %
05.01.2019 22:22 5,4 C 5,0 C 4,4 C 98 % 1029,5 hPa 0,0 l/m 0 min 0 min 0 W/m 19,3 km/h (3 Bft) 97,87 %
05.01.2019 22:24 5,5 C 5,0 C 4,4 C 98 % 1029,4 hPa 0,0 l/m 0 min 2 min 0 W/m 22,5 km/h (4 Bft) 97,87 %
05.01.2019 22:26 5,5 C 5,0 C 4,4 C 98 % 1029,5 hPa 0,0 l/m 0 min 2 min 0 W/m 9,7 km/h (2 Bft) 100,00 %
05.01.2019 22:28 5,4 C 5,0 C 4,4 C 98 % 1029,6 hPa 0,0 l/m 0 min 2 min 0 W/m 12,9 km/h (3 Bft) 97,87 %
05.01.2019 22:30 5,4 C 5,0 C 4,4 C 98 % 1029,5 hPa 0,0 l/m 0 min 2 min 0 W/m 22,5 km/h (4 Bft) 97,87 %
05.01.2019 22:32 5,4 C 5,0 C 4,4 C 98 % 1029,6 hPa 0,0 l/m 0 min 2 min 0 W/m 12,9 km/h (3 Bft) 95,65 %
05.01.2019 22:34 5,4 C 5,0 C 4,4 C 98 % 1029,5 hPa 0,0 l/m 0 min 2 min 0 W/m 12,9 km/h (3 Bft) 97,87 %
05.01.2019 22:36 5,4 C 4,4 C 4,4 C 98 % 1029,5 hPa 0,0 l/m 0 min 2 min 0 W/m 22,5 km/h (4 Bft) 98,31 %
05.01.2019 22:38 5,4 C 4,4 C 4,4 C 98 % 1029,4 hPa 0,0 l/m 0 min 2 min 0 W/m 19,3 km/h (3 Bft) 97,14 %
05.01.2019 22:40 5,4 C 4,4 C 4,4 C 98 % 1029,4 hPa 0,0 l/m 0 min 0 min 0 W/m 12,9 km/h (3 Bft) 97,87 %
05.01.2019 22:42 5,4 C 4,4 C 4,4 C 98 % 1029,4 hPa 0,0 l/m 0 min 2 min 0 W/m 16,1 km/h (3 Bft) 95,74 %
05.01.2019 22:44 5,4 C 4,4 C 4,4 C 98 % 1029,4 hPa 0,0 l/m 0 min 0 min 0 W/m 16,1 km/h (3 Bft) 97,83 %
05.01.2019 22:46 5,4 C 4,4 C 4,4 C 98 % 1029,4 hPa 0,0 l/m 0 min 0 min 0 W/m 19,3 km/h (3 Bft) 95,74 %
05.01.2019 22:48 5,4 C 4,4 C 4,4 C 98 % 1029,4 hPa 0,0 l/m 0 min 0 min 0 W/m 19,3 km/h (3 Bft) 95,74 %
05.01.2019 22:50 5,4 C 4,4 C 4,4 C 98 % 1029,4 hPa 0,0 l/m 0 min 0 min 0 W/m 12,9 km/h (3 Bft) 100,00 %
05.01.2019 22:52 5,4 C 4,4 C 4,4 C 98 % 1029,4 hPa 0,0 l/m 0 min 0 min 0 W/m 19,3 km/h (3 Bft) 100,00 %
05.01.2019 22:54 5,4 C 4,4 C 4,4 C 98 % 1029,5 hPa 0,0 l/m 0 min 2 min 0 W/m 22,5 km/h (4 Bft) 100,00 %
05.01.2019 22:56 5,4 C 4,4 C 4,4 C 98 % 1029,4 hPa 0,0 l/m 0 min 2 min 0 W/m 19,3 km/h (3 Bft) 97,83 %
05.01.2019 22:58 5,4 C 4,4 C 4,4 C 98 % 1029,4 hPa 0,0 l/m 0 min 0 min 0 W/m 19,3 km/h (3 Bft) 100,00 %
05.01.2019 23:00 5,4 C 4,4 C 4,4 C 98 % 1029,4 hPa 0,0 l/m 0 min 0 min 0 W/m 12,9 km/h (3 Bft) 100,00 %
05.01.2019 23:02 5,4 C 4,4 C 4,4 C 98 % 1029,4 hPa 0,0 l/m 0 min 0 min 0 W/m 12,9 km/h (3 Bft) 100,00 %
05.01.2019 23:04 5,4 C 4,4 C 3,9 C 98 % 1029,4 hPa 0,0 l/m 0 min 2 min 0 W/m 22,5 km/h (4 Bft) 97,87 %
05.01.2019 23:06 5,4 C 4,4 C 3,9 C 98 % 1029,3 hPa 0,0 l/m 0 min 0 min 0 W/m 19,3 km/h (3 Bft) 98,28 %
05.01.2019 23:08 5,4 C 4,4 C 3,9 C 98 % 1029,4 hPa 0,0 l/m 0 min 0 min 0 W/m 12,9 km/h (3 Bft) 100,00 %
05.01.2019 23:10 5,4 C 4,4 C 3,9 C 98 % 1029,3 hPa 0,0 l/m 0 min 0 min 0 W/m 16,1 km/h (3 Bft) 100,00 %
05.01.2019 23:12 5,4 C 4,4 C 3,9 C 98 % 1029,4 hPa 0,0 l/m 0 min 0 min 0 W/m 19,3 km/h (3 Bft) 95,74 %
05.01.2019 23:14 5,4 C 4,4 C 3,9 C 98 % 1029,4 hPa 0,0 l/m 0 min 0 min 0 W/m 12,9 km/h (3 Bft) 97,87 %
05.01.2019 23:16 5,4 C 4,4 C 3,9 C 98 % 1029,4 hPa 0,0 l/m 0 min 0 min 0 W/m 22,5 km/h (4 Bft) 97,87 %
05.01.2019 23:18 5,4 C 4,4 C 3,9 C 98 % 1029,3 hPa 0,0 l/m 0 min 0 min 0 W/m 16,1 km/h (3 Bft) 97,83 %
05.01.2019 23:20 5,4 C 4,4 C 3,9 C 98 % 1029,3 hPa 0,0 l/m 0 min 0 min 0 W/m 19,3 km/h (3 Bft) 97,87 %
05.01.2019 23:22 5,3 C 4,4 C 3,9 C 98 % 1029,3 hPa 0,0 l/m 0 min 0 min 0 W/m 12,9 km/h (3 Bft) 97,87 %
05.01.2019 23:24 5,3 C 4,4 C 3,9 C 98 % 1029,3 hPa 0,0 l/m 0 min 0 min 0 W/m 16,1 km/h (3 Bft) 95,74 %
05.01.2019 23:26 5,3 C 4,4 C 3,9 C 98 % 1029,4 hPa 0,0 l/m 0 min 0 min 0 W/m 12,9 km/h (3 Bft) 97,87 %
05.01.2019 23:28 5,3 C 4,4 C 3,9 C 98 % 1029,4 hPa 0,0 l/m 0 min 0 min 0 W/m 19,3 km/h (3 Bft) 97,87 %
05.01.2019 23:30 5,3 C 4,4 C 3,9 C 98 % 1029,4 hPa 0,0 l/m 0 min 0 min 0 W/m 9,7 km/h (2 Bft) 97,83 %
05.01.2019 23:32 5,3 C 4,4 C 3,9 C 98 % 1029,4 hPa 0,0 l/m 0 min 0 min 0 W/m 16,1 km/h (3 Bft) 97,87 %
05.01.2019 23:34 5,3 C 4,4 C 3,9 C 98 % 1029,4 hPa 0,2 l/m 0 min 2 min 0 W/m 29,0 km/h (5 Bft) 97,87 %
05.01.2019 23:36 5,3 C 4,4 C 3,9 C 98 % 1029,4 hPa 0,0 l/m 0 min 0 min 0 W/m 19,3 km/h (3 Bft) 97,87 %
05.01.2019 23:38 5,3 C 4,4 C 3,9 C 98 % 1029,4 hPa 0,0 l/m 0 min 0 min 0 W/m 19,3 km/h (3 Bft) 97,87 %
05.01.2019 23:40 5,3 C 4,4 C 3,9 C 98 % 1029,3 hPa 0,0 l/m 0 min 0 min 0 W/m 22,5 km/h (4 Bft) 97,87 %
05.01.2019 23:42 5,3 C 4,4 C 3,9 C 98 % 1029,3 hPa 0,0 l/m 0 min 0 min 0 W/m 16,1 km/h (3 Bft) 97,83 %
05.01.2019 23:44 5,3 C 4,4 C 3,9 C 98 % 1029,3 hPa 0,0 l/m 0 min 2 min 0 W/m 16,1 km/h (3 Bft) 97,87 %
05.01.2019 23:46 5,3 C 4,4 C 3,9 C 98 % 1029,4 hPa 0,0 l/m 0 min 0 min 0 W/m 19,3 km/h (3 Bft) 97,87 %
05.01.2019 23:48 5,3 C 4,4 C 3,9 C 98 % 1029,4 hPa 0,0 l/m 0 min 0 min 0 W/m 19,3 km/h (3 Bft) 97,87 %
05.01.2019 23:50 5,3 C 4,4 C 3,9 C 98 % 1029,4 hPa 0,0 l/m 0 min 0 min 0 W/m 16,1 km/h (3 Bft) 97,87 %
05.01.2019 23:52 5,3 C 4,4 C 3,9 C 98 % 1029,3 hPa 0,0 l/m 0 min 0 min 0 W/m 19,3 km/h (3 Bft) 97,83 %
05.01.2019 23:54 5,3 C 4,4 C 3,9 C 98 % 1029,4 hPa 0,0 l/m 0 min 0 min 0 W/m 19,3 km/h (3 Bft) 97,87 %
05.01.2019 23:56 5,3 C 4,4 C 3,9 C 98 % 1029,3 hPa 0,0 l/m 0 min 0 min 0 W/m 19,3 km/h (3 Bft) 97,87 %
05.01.2019 23:58 5,3 C 4,4 C 3,9 C 98 % 1029,3 hPa 0,0 l/m 0 min 0 min 0 W/m 22,5 km/h (4 Bft) 97,87 %
_ Min-Zeit 00:00 00:00 00:00 00:00 06:34 - - - - 00:52 15:34
Minimum _ 3,4 C 2,8 C 2,2 C 98 % 1028,0 hPa - - - - 0,0 km/h (0 Bft) 63,04 %
_ Max-Zeit 14:04 12:07 12:07 02:08 00:00 01:56 00:00 06:08 12:12 15:38 00:08
Maximum _ 6,5 C 6,1 C 5,6 C 99 % 1031,5 hPa 0,2 l/m 0 min 4 min 84 W/m 35,4 km/h
N-NW (5 Bft)
100,00 %
Durchschnitt _ 5,5 C 4,9 C 4,4 C 99 % 1029,1 hPa #2,2 l/m #0 min. #5:20 h 38 W/m 16,2 km/h (3 Bft) 96,99 %
© 2019 W. Hausmann